Laatste waarneming: 11:35
Temperatuur:18,9°C
Dauwpunt:15,2°C
Rel. vocht:79,0%
Natte-bol:17,3°C
Wind (gem. 10 min.):0,9 m/s
Wind (max. 10 min.): m/s
Windrichting:45°
Neerslagsom:1,2 mm
Neerslagintensiteit:0,0 mm/u
Luchtdruk:1001,5 hPa
Straling:317,0 W/m2
 
Maximumtemp.:18,9°C (11:33)
Minimumtemp.:12,8°C (04:26)
Hoogste windstoot:- m/s (15:58)


Bekijk het Grafiekoverzicht.
Bekijk het Maandoverzicht.
Dagtabel
Tijd Temp. Dauwp. Natte-bol Rel. Hum. Windsnelh. Windricht. Windstoot Neerslag Straling Luchtdruk
 
11:35 18,9 15,2 17,3 79,0 0,9 45 - 1,2 317 1.001,5
11:34 18,9 15,2 17,3 79,0 0,7 46 - 1,2 285 1.001,5
11:33 18,9 15,2 17,3 79,0 0,6 46 - 1,2 265 1.001,5
11:32 18,8 - - - - - - - - -
11:31 18,8 15,4 17,4 80,5 0,5 47 - 1,2 438 1.001,6
11:30 18,8 15,5 17,5 81,0 0,5 47 - 1,2 626 1.001,6
11:29 18,7 15,4 17,4 81,0 0,5 47 - 1,2 636 1.001,7
11:28 18,6 15,3 17,3 81,1 0,6 48 - 1,2 488 1.001,7
11:27 18,4 - - - - - - - - -
11:26 18,4 15,3 17,3 82,4 0,6 48 - 1,2 275 1.001,7
11:25 18,3 - - - - - - - - -
11:24 18,2 15,3 17,2 83,0 0,5 49 - 1,2 749 1.001,8
11:23 18,2 15,4 17,3 83,8 0,4 49 - 1,2 720 1.001,8
11:22 18,0 15,3 17,1 84,1 0,3 50 - 1,2 720 1.001,8
11:21 17,9 15,4 17,2 85,3 0,3 51 - 1,2 733 1.001,8
11:20 17,8 15,4 17,2 86,0 0,5 54 - 1,2 736 1.001,8
11:19 17,6 15,2 17,0 86,0 0,4 58 - 1,2 756 1.001,8
11:18 17,5 15,3 17,0 86,7 0,3 64 - 1,2 750 1.001,8
11:17 17,3 15,1 16,8 87,0 0,3 74 - 1,2 776 1.001,8
11:16 17,1 14,9 16,6 87,0 0,3 86 - 1,2 793 1.001,8
11:15 16,9 14,7 16,4 87,0 0,1 99 - 1,2 800 1.001,8
11:14 16,8 14,6 16,2 86,6 0,1 110 - 1,2 412 1.001,8
11:13 16,7 14,3 16,0 86,0 0,1 118 - 1,2 281 1.001,9
11:12 16,7 14,3 16,0 86,0 0,2 123 - 1,2 286 1.001,9
11:11 16,7 14,3 16,0 86,0 0,3 127 - 1,2 310 1.001,9
11:10 16,7 14,3 16,0 86,0 0,3 131 - 1,2 285 1.001,9
11:09 16,6 14,2 15,9 86,0 0,2 132 - 1,2 229 1.001,9
11:08 16,6 14,2 15,9 86,0 0,2 133 - 1,2 200 1.001,9
11:07 16,6 14,2 15,9 86,0 0,6 132 - 1,2 178 1.001,9
11:06 16,6 14,2 15,9 85,8 0,9 132 - 1,2 167 1.001,9
11:05 16,6 14,1 15,8 85,1 1,0 131 - 1,2 162 1.001,9
11:04 16,6 14,1 15,8 85,0 1,0 131 - 1,2 165 1.001,9
11:03 16,6 14,0 15,8 84,7 1,0 130 - 1,2 170 1.002,0
11:02 16,7 14,0 15,8 84,0 1,0 129 - 1,2 189 1.002,0
11:01 16,6 13,8 15,6 83,4 1,0 127 - 1,2 222 1.002,0
11:00 16,7 13,8 15,6 83,0 1,0 126 - 1,2 237 1.002,0
 
10:59 16,7 13,6 15,5 82,1 1,1 125 - 1,2 271 1.002,0
10:58 16,7 13,6 15,5 81,8 1,0 124 - 1,2 262 1.002,1
10:57 16,8 13,5 15,5 81,0 1,0 122 - 1,2 226 1.002,1
10:56 16,9 13,5 15,5 80,5 0,9 119 - 1,2 204 1.002,2
10:55 17,0 13,4 15,5 79,4 0,8 115 - 1,2 194 1.002,3
10:54 17,1 13,4 15,5 79,0 0,7 110 - 1,2 167 1.002,2
10:53 17,2 13,3 15,5 78,1 0,6 105 - 1,2 130 1.002,2
10:52 17,3 13,4 15,6 78,0 0,5 101 - 1,2 103 1.002,2
10:51 17,5 13,6 15,7 77,7 0,4 98 - 1,2 87 1.002,3
10:50 17,6 13,5 15,7 77,0 0,4 96 - 1,2 80 1.002,3
10:49 17,7 13,5 15,8 76,4 0,3 95 - 1,2 69 1.002,4
10:48 17,9 13,6 15,9 76,0 0,4 95 - 1,2 57 1.002,3
10:47 18,0 13,5 15,9 75,0 0,4 96 - 1,2 48 1.002,3
10:46 18,0 13,2 15,7 73,7 0,6 100 - 0,8 40 1.002,4
10:45 18,0 13,0 15,5 72,6 0,7 105 - 0,2 33 1.002,5
10:44 18,0 12,7 15,3 71,4 0,9 111 - 0,0 29 1.002,8
10:43 18,0 12,7 15,3 71,0 1,0 119 - 0,0 26 1.002,9
10:42 18,0 12,7 15,3 71,0 0,9 125 - 0,0 27 1.002,9
10:41 18,0 12,7 15,3 71,0 0,7 131 - 0,0 29 1.002,9
10:40 18,0 12,7 15,3 71,0 0,6 135 - 0,0 31 1.002,9
10:39 18,0 12,7 15,3 71,0 0,6 138 - 0,0 33 1.002,8
10:38 18,0 12,7 15,3 71,0 0,6 140 - 0,0 33 1.002,7
10:37 18,0 12,7 15,3 71,0 0,7 142 - 0,0 32 1.002,7
10:36 18,0 12,7 15,3 71,0 0,8 143 - 0,0 29 1.002,8
10:35 18,0 12,7 15,3 71,0 0,8 144 - 0,0 27 1.002,8
10:34 18,0 12,7 15,3 71,0 0,8 144 - 0,0 26 1.002,9
10:33 18,0 12,7 15,3 71,0 0,8 143 - 0,0 26 1.002,8
10:32 18,0 12,7 15,3 71,0 1,0 142 - 0,0 30 1.002,7
10:31 18,1 12,8 15,4 71,0 1,1 140 - 0,0 36 1.002,5
10:30 18,0 12,7 15,3 71,0 1,1 137 - 0,0 46 1.002,4
10:29 18,0 12,7 15,3 71,0 1,1 136 - 0,0 59 1.002,3
10:28 18,0 12,7 15,3 71,3 1,0 135 - 0,0 74 1.002,2
10:27 18,0 12,9 15,4 72,0 1,0 135 - 0,0 94 1.002,0
10:26 18,0 12,9 15,4 72,0 1,0 135 - 0,0 130 1.002,0
10:25 17,9 12,9 15,4 72,8 1,0 135 - 0,0 191 1.001,9
10:24 17,9 13,0 15,5 73,0 1,2 136 - 0,0 263 1.001,9
10:23 17,9 13,0 15,5 73,0 1,6 136 - 0,0 268 1.001,9
10:22 17,8 12,9 15,4 73,0 1,9 136 - 0,0 287 1.001,9
10:21 17,8 12,9 15,4 73,0 1,6 135 - 0,0 332 1.002,0
10:20 17,8 13,0 15,5 73,6 1,3 135 - 0,0 300 1.002,1
10:19 17,8 13,0 15,4 73,3 1,2 133 - 0,0 333 1.002,2
10:18 17,7 12,8 15,3 73,0 1,1 132 - 0,0 320 1.002,2
10:17 17,7 12,8 15,3 73,2 1,1 131 - 0,0 299 1.002,2
10:16 17,7 - - - - - - - - -
10:15 17,6 12,9 15,3 74,0 1,4 127 - 0,0 299 1.002,1
10:14 17,6 12,9 15,3 74,0 1,4 125 - 0,0 272 1.002,1
10:13 17,6 12,9 15,3 74,0 1,4 123 - 0,0 258 1.002,1
10:12 17,6 12,9 15,3 74,0 1,3 121 - 0,0 250 1.002,1
10:11 17,5 - - - - - - - - -
10:10 17,5 12,8 15,2 74,0 0,9 118 - 0,0 264 1.002,3
10:09 17,4 - - - - - - - - -
10:08 17,4 12,7 15,1 74,0 0,7 121 - 0,0 527 1.002,2
10:07 17,4 12,7 15,1 74,0 0,8 122 - 0,0 541 1.002,2
10:06 17,3 12,6 15,0 73,9 0,9 122 - 0,0 556 1.002,3
10:05 17,3 - - - - - - - - -
10:04 17,3 12,5 15,0 73,4 1,0 124 - 0,0 202 1.002,4
10:03 17,3 - - - - - - - - -
10:02 17,2 12,5 14,9 74,0 1,2 126 - 0,0 186 1.002,3
10:01 17,2 12,5 14,9 74,0 1,2 128 - 0,0 184 1.002,2
10:00 17,1 - - - - - - - - -
 
09:59 17,1 12,5 14,9 74,3 1,2 133 - 0,0 172 1.002,2
09:58 17,1 12,6 15,0 75,0 1,2 133 - 0,0 178 1.002,2
09:57 17,0 12,5 14,9 75,0 1,1 137 - 0,0 164 1.002,2
09:56 16,9 12,4 14,8 75,0 1,1 138 - 0,0 156 1.002,3
09:55 16,9 12,4 14,8 75,0 1,2 139 - 0,0 153 1.002,3
09:54 16,8 12,4 14,7 75,2 1,4 139 - 0,0 139 1.002,3
09:53 16,8 12,5 14,8 76,0 1,5 138 - 0,0 141 1.002,3
09:52 16,7 - - - - - - - - -
09:51 16,7 12,4 14,7 76,0 0,9 138 - 0,0 129 1.002,5
09:50 16,6 - - - - - - - - -
09:49 16,6 12,4 14,6 76,2 0,4 131 - 0,0 112 1.002,4
09:48 16,6 12,6 14,8 77,0 0,5 126 - 0,0 107 1.002,3
09:47 16,5 12,5 14,7 77,0 0,8 123 - 0,0 105 1.002,4
09:46 16,4 12,4 14,6 77,0 1,0 118 - 0,0 104 1.002,4
09:45 16,4 12,4 14,6 77,0 1,3 113 - 0,0 120 1.002,4
09:44 16,3 12,3 14,5 77,0 1,3 109 - 0,0 278 1.002,5
09:43 16,3 12,3 14,5 77,1 1,4 103 - 0,0 309 1.002,5
09:42 16,2 12,4 14,5 78,0 1,4 101 - 0,0 389 1.002,4
09:41 16,2 12,4 14,5 78,0 1,5 98 - 0,0 424 1.002,4
09:40 16,2 - - - - - - - - -
09:39 16,1 12,3 14,4 78,0 1,8 94 - 0,0 364 1.002,5
09:38 16,1 12,3 14,4 78,0 1,9 93 - 0,0 366 1.002,5
09:37 16,0 12,3 14,4 78,9 1,8 91 - 0,0 343 1.002,6
09:36 15,9 12,3 14,3 79,0 1,6 90 - 0,0 340 1.002,6
09:35 15,9 12,3 14,3 79,0 1,2 89 - 0,0 350 1.002,6
09:34 15,8 12,2 14,2 79,0 0,9 89 - 0,0 339 1.002,6
09:33 15,8 12,2 14,2 79,0 0,7 89 - 0,0 340 1.002,6
09:32 15,8 12,2 14,2 79,0 0,5 89 - 0,0 317 1.002,6
09:31 15,8 - - - - - - - - -
09:30 15,7 12,1 14,1 79,0 0,4 89 - 0,0 220 1.002,7
09:29 15,7 12,1 14,1 79,0 0,5 88 - 0,0 214 1.002,7
09:28 15,7 12,1 14,1 79,0 0,6 87 - 0,0 228 1.002,7
09:27 15,7 12,1 14,1 79,0 0,8 85 - 0,0 221 1.002,7
09:26 15,7 - - - - - - - - -
09:25 15,6 12,0 14,0 79,2 1,1 81 - 0,0 193 1.002,8
09:24 15,6 12,2 14,2 80,0 1,2 79 - 0,0 204 1.002,8
09:23 15,6 12,2 14,2 80,0 1,1 78 - 0,0 200 1.002,8
09:22 15,6 12,2 14,2 80,0 1,2 78 - 0,0 191 1.002,8
09:21 15,6 12,2 14,2 80,0 1,3 78 - 0,0 164 1.002,8
09:20 15,6 12,0 14,0 79,2 1,3 79 - 0,0 176 1.002,8
09:19 15,6 12,0 14,0 79,0 1,1 80 - 0,0 177 1.002,8
09:18 15,6 12,0 14,0 79,0 0,9 80 - 0,0 181 1.002,8
09:17 15,6 12,0 14,0 79,0 0,8 80 - 0,0 165 1.002,8
09:16 15,6 12,0 14,0 79,0 0,7 81 - 0,0 155 1.002,7
09:15 15,6 12,0 14,0 79,0 0,7 81 - 0,0 180 1.002,8
09:14 15,6 12,0 14,0 79,0 0,6 81 - 0,0 177 1.002,8
09:13 15,6 12,0 14,0 79,0 0,5 83 - 0,0 178 1.002,8
09:12 15,6 12,0 14,0 79,0 0,1 85 - 0,0 182 1.002,7
09:11 15,6 12,0 14,0 79,0 0,1 88 - 0,0 170 1.002,8
09:10 15,6 12,0 14,0 79,0 0,3 91 - 0,0 154 1.002,8
09:09 15,6 12,0 14,0 79,0 0,5 95 - 0,0 149 1.002,8
09:08 15,6 12,0 14,0 79,0 0,4 99 - 0,0 144 1.002,8
09:07 15,5 11,7 13,8 78,1 0,6 104 - 0,0 143 1.002,8
09:06 15,5 11,8 13,8 78,4 0,9 109 - 0,0 136 1.002,9
09:05 15,5 11,9 13,9 79,0 1,1 113 - 0,0 138 1.002,8
09:04 15,5 11,9 13,9 79,0 1,1 116 - 0,0 157 1.002,8
09:03 15,5 - - - - - - - - -
09:02 15,4 11,8 13,8 79,0 1,2 118 - 0,0 153 1.002,8
09:01 15,4 11,8 13,8 79,0 1,2 119 - 0,0 162 1.002,9
09:00 15,4 11,8 13,8 79,0 1,1 120 - 0,0 166 1.002,9
 
08:59 15,4 11,8 13,8 79,0 1,1 120 - 0,0 156 1.002,8
08:58 15,4 11,8 13,8 79,0 1,0 121 - 0,0 157 1.002,9
08:57 15,4 11,8 13,8 79,0 1,2 122 - 0,0 153 1.002,9
08:56 15,4 11,8 13,8 79,0 1,4 122 - 0,0 150 1.002,9
08:55 15,4 11,8 13,8 79,0 1,5 123 - 0,0 146 1.002,9
08:54 15,4 11,8 13,8 79,0 1,5 124 - 0,0 143 1.002,9
08:53 15,4 11,8 13,8 79,0 1,5 124 - 0,0 145 1.002,9
08:52 15,4 11,7 13,8 78,4 1,6 125 - 0,0 146 1.002,9
08:51 15,4 11,6 13,7 78,0 1,6 126 - 0,0 150 1.002,9
08:50 15,4 11,6 13,7 78,1 1,6 127 - 0,0 157 1.002,9
08:49 15,4 11,8 13,8 79,0 1,7 128 - 0,0 160 1.002,9
08:48 15,4 11,7 13,8 78,7 1,7 128 - 0,0 156 1.002,9
08:47 15,4 11,6 13,7 78,0 1,3 130 - 0,0 153 1.002,9
08:46 15,4 11,6 13,7 78,0 1,3 131 - 0,0 151 1.002,9
08:45 15,4 11,6 13,7 78,0 1,2 131 - 0,0 150 1.002,9
08:44 15,4 11,6 13,7 78,0 1,0 131 - 0,0 149 1.002,9
08:43 15,4 11,6 13,7 78,0 0,7 132 - 0,0 150 1.002,8
08:42 15,4 11,6 13,7 78,0 0,7 132 - 0,0 149 1.002,8
08:41 15,4 11,6 13,7 78,0 0,9 133 - 0,0 151 1.002,9
08:40 15,4 11,6 13,7 78,0 0,8 135 - 0,0 151 1.003,0
08:39 15,4 11,6 13,7 78,0 0,3 135 - 0,0 154 1.003,0
08:38 15,4 11,6 13,7 78,0 0,4 135 - 0,0 156 1.003,0
08:37 15,4 11,6 13,7 78,0 0,9 134 - 0,0 159 1.003,0
08:36 15,4 11,6 13,7 78,0 1,2 133 - 0,0 165 1.003,0
08:35 15,4 11,6 13,7 78,0 1,4 132 - 0,0 173 1.003,0
08:34 15,4 11,6 13,7 78,0 1,4 131 - 0,0 171 1.003,0
08:33 15,4 11,6 13,7 78,0 1,5 129 - 0,0 168 1.003,0
08:32 15,4 11,6 13,7 78,0 1,5 127 - 0,0 164 1.003,0
08:31 15,4 11,6 13,7 78,0 1,4 125 - 0,0 161 1.003,0
08:30 15,4 11,6 13,7 78,0 1,4 125 - 0,0 157 1.003,1
08:29 15,4 11,6 13,7 78,0 1,5 125 - 0,0 159 1.003,1
08:28 15,4 11,6 13,7 78,0 1,6 126 - 0,0 156 1.003,1
08:27 15,4 11,6 13,7 78,0 1,8 127 - 0,0 151 1.003,1
08:26 15,4 11,6 13,7 78,0 1,7 129 - 0,0 139 1.003,1
08:25 15,4 11,6 13,7 78,0 1,2 131 - 0,0 140 1.003,2
08:24 15,4 11,6 13,7 78,0 1,1 134 - 0,0 182 1.003,2
08:23 15,4 11,6 13,7 78,0 1,0 136 - 0,0 209 1.003,2
08:22 15,4 11,6 13,7 78,0 1,0 139 - 0,0 177 1.003,2
08:21 15,3 11,5 13,6 78,1 1,2 142 - 0,0 180 1.003,2
08:20 15,3 11,7 13,7 79,0 1,5 145 - 0,0 191 1.003,2
08:19 15,3 11,6 13,7 78,5 1,6 148 - 0,0 175 1.003,2
08:18 15,3 11,5 13,6 78,0 1,6 151 - 0,0 217 1.003,2
08:17 15,3 11,6 13,7 78,6 1,6 154 - 0,0 214 1.003,2
08:16 15,3 11,7 13,7 79,0 1,6 156 - 0,0 172 1.003,2
08:15 15,3 11,7 13,7 79,0 1,6 159 - 0,0 168 1.003,3
08:14 15,2 11,6 13,6 79,0 1,7 161 - 0,0 174 1.003,2
08:13 15,2 11,6 13,6 79,0 1,7 162 - 0,0 226 1.003,3
08:12 15,2 11,6 13,6 79,0 1,5 162 - 0,0 266 1.003,3
08:11 15,2 11,6 13,6 79,0 1,4 162 - 0,0 236 1.003,3
08:10 15,1 11,5 13,5 79,0 1,3 161 - 0,0 202 1.003,2
08:09 15,1 11,5 13,5 79,0 1,1 160 - 0,0 187 1.003,3
08:08 15,1 11,5 13,5 79,0 1,0 158 - 0,0 165 1.003,3
08:07 15,1 11,5 13,5 79,0 1,0 155 - 0,0 147 1.003,3
08:06 15,1 11,5 13,5 79,0 1,0 153 - 0,0 155 1.003,3
08:05 15,1 11,5 13,5 79,0 0,9 151 - 0,0 139 1.003,3
08:04 15,0 11,4 13,4 79,0 0,8 150 - 0,0 163 1.003,3
08:03 15,0 11,4 13,5 79,3 0,9 149 - 0,0 179 1.003,3
08:02 15,0 11,6 13,6 80,0 1,2 148 - 0,0 170 1.003,3
08:01 14,9 11,5 13,5 80,0 1,5 147 - 0,0 196 1.003,3
08:00 14,9 11,5 13,5 80,0 1,6 146 - 0,0 187 1.003,2
 
07:59 14,9 11,5 13,5 80,0 1,5 145 - 0,0 191 1.003,3
07:58 14,8 11,4 13,4 80,0 1,4 143 - 0,0 197 1.003,3
07:57 14,8 11,4 13,4 80,0 1,3 142 - 0,0 201 1.003,3
07:56 14,8 11,4 13,4 80,0 1,3 142 - 0,0 192 1.003,3
07:55 14,8 11,4 13,4 80,0 1,3 143 - 0,0 181 1.003,3
07:54 14,8 11,4 13,4 80,0 1,3 144 - 0,0 184 1.003,3
07:53 14,8 11,4 13,4 80,0 1,3 146 - 0,0 185 1.003,3
07:52 14,7 11,3 13,3 80,0 1,2 148 - 0,0 187 1.003,3
07:51 14,7 11,3 13,3 80,0 1,4 150 - 0,0 191 1.003,3
07:50 14,7 11,3 13,3 80,0 1,6 151 - 0,0 193 1.003,3
07:49 14,7 11,3 13,3 80,0 1,6 152 - 0,0 180 1.003,3
07:48 14,6 11,2 13,2 80,0 1,6 151 - 0,0 169 1.003,3
07:47 14,6 11,2 13,2 80,0 1,6 150 - 0,0 156 1.003,3
07:46 14,6 11,2 13,2 80,0 1,5 148 - 0,0 156 1.003,3
07:45 14,6 11,3 13,2 80,4 1,3 147 - 0,0 156 1.003,3
07:44 14,5 11,2 13,1 80,7 1,2 145 - 0,0 161 1.003,3
07:43 14,5 11,1 13,1 80,0 1,1 144 - 0,0 163 1.003,2
07:42 14,5 11,1 13,1 80,0 1,2 144 - 0,0 174 1.003,3
07:41 14,5 11,1 13,1 80,0 1,5 143 - 0,0 171 1.003,3
07:40 14,4 11,0 13,0 80,1 1,9 143 - 0,0 160 1.003,3
07:39 14,4 11,2 13,1 81,0 2,0 142 - 0,0 153 1.003,4
07:38 14,4 11,2 13,1 81,0 1,8 140 - 0,0 133 1.003,3
07:37 14,4 11,2 13,1 81,0 1,6 138 - 0,0 121 1.003,4
07:36 14,4 11,2 13,1 81,0 1,2 135 - 0,0 120 1.003,4
07:35 14,4 11,2 13,1 81,0 1,0 134 - 0,0 116 1.003,4
07:34 14,4 11,2 13,1 81,0 0,8 133 - 0,0 119 1.003,4
07:33 14,3 11,1 13,0 81,0 0,9 134 - 0,0 127 1.003,4
07:32 14,3 11,1 13,0 81,0 1,1 135 - 0,0 120 1.003,4
07:31 14,3 11,1 13,0 81,0 1,5 137 - 0,0 119 1.003,3
07:30 14,3 11,1 13,0 81,0 1,7 139 - 0,0 123 1.003,3
07:29 14,3 11,1 13,0 81,0 1,7 142 - 0,0 114 1.003,3
07:28 14,3 11,1 13,0 81,0 1,7 144 - 0,0 122 1.003,4
07:27 14,3 11,1 13,0 81,0 1,5 146 - 0,0 127 1.003,3
07:26 14,3 11,1 13,0 81,0 1,3 148 - 0,0 119 1.003,3
07:25 14,3 11,1 13,0 81,0 1,3 150 - 0,0 112 1.003,3
07:24 14,3 11,1 13,0 81,0 1,6 151 - 0,0 114 1.003,3
07:23 14,3 11,1 13,0 81,0 1,6 153 - 0,0 116 1.003,3
07:22 14,3 11,1 13,0 81,0 1,3 153 - 0,0 123 1.003,3
07:21 14,3 11,1 13,0 81,0 1,2 154 - 0,0 118 1.003,3
07:20 14,3 11,1 13,0 81,0 1,3 154 - 0,0 113 1.003,4
07:19 14,3 11,1 13,0 81,0 1,1 152 - 0,0 127 1.003,3
07:18 14,2 11,0 12,9 81,0 1,1 151 - 0,0 125 1.003,3
07:17 14,2 11,0 12,9 81,0 1,3 149 - 0,0 118 1.003,3
07:16 14,2 11,0 12,9 81,0 1,3 146 - 0,0 110 1.003,3
07:15 14,2 11,0 12,9 81,0 1,4 143 - 0,0 110 1.003,3
07:14 14,2 11,0 12,9 81,0 1,5 139 - 0,0 110 1.003,3
07:12 14,2 11,0 12,9 81,0 1,6 136 - 0,0 111 1.003,3
07:11 14,2 11,0 12,9 81,0 1,7 134 - 0,0 98 1.003,3
07:10 14,2 11,0 12,9 81,0 1,7 132 - 0,0 98 1.003,3
07:09 14,2 11,0 12,9 81,0 1,8 131 - 0,0 98 1.003,3
07:08 14,2 11,0 12,9 81,0 1,7 131 - 0,0 96 1.003,3
07:07 14,2 11,0 12,9 81,0 1,6 130 - 0,0 91 1.003,3
07:06 14,2 11,0 12,9 81,0 1,6 130 - 0,0 92 1.003,3
07:05 14,2 11,0 12,9 81,0 1,6 130 - 0,0 101 1.003,3
07:04 14,2 11,0 12,9 81,0 1,6 131 - 0,0 107 1.003,3
07:03 14,2 11,0 12,9 81,0 1,6 132 - 0,0 108 1.003,3
07:02 14,2 11,0 12,9 81,0 1,5 133 - 0,0 112 1.003,3
07:01 14,1 10,9 12,8 81,0 1,1 136 - 0,0 116 1.003,3
07:00 14,1 10,9 12,8 81,0 0,9 139 - 0,0 120 1.003,3
 
06:59 14,1 10,9 12,8 81,1 0,9 143 - 0,0 117 1.003,3
06:58 14,1 11,1 12,9 82,0 1,0 146 - 0,0 114 1.003,4
06:57 14,1 11,1 12,9 82,0 1,1 148 - 0,0 101 1.003,4
06:56 14,0 11,0 12,8 82,0 1,3 150 - 0,0 105 1.003,4
06:55 14,0 11,0 12,8 82,0 1,5 151 - 0,0 98 1.003,3
06:54 14,0 11,0 12,8 82,0 1,6 151 - 0,0 95 1.003,4
06:53 14,0 11,0 12,8 82,0 1,6 150 - 0,0 96 1.003,4
06:52 13,9 10,9 12,7 82,0 1,6 148 - 0,0 98 1.003,3
06:51 13,9 10,9 12,7 82,0 1,5 146 - 0,0 97 1.003,3
06:50 13,9 10,9 12,7 82,0 1,5 143 - 0,0 95 1.003,2
06:49 13,8 10,8 12,6 82,0 1,3 141 - 0,0 90 1.003,2
06:48 13,8 10,8 12,6 82,0 1,2 138 - 0,0 87 1.003,3
06:47 13,8 10,8 12,6 82,0 1,1 137 - 0,0 82 1.003,2
06:46 13,8 10,8 12,6 82,0 1,2 135 - 0,0 78 1.003,3
06:45 13,7 10,7 12,5 82,0 1,4 135 - 0,0 74 1.003,3
06:44 13,7 10,7 12,5 82,0 1,4 133 - 0,0 68 1.003,3
06:43 13,7 10,8 12,6 82,7 1,5 132 - 0,0 69 1.003,3
06:42 13,7 10,9 12,6 83,0 1,8 131 - 0,0 68 1.003,4
06:41 13,7 10,9 12,6 83,0 1,6 130 - 0,0 62 1.003,3
06:40 13,7 10,9 12,6 83,0 1,2 128 - 0,0 58 1.003,3
06:39 13,7 10,9 12,6 83,0 1,0 128 - 0,0 52 1.003,3
06:38 13,7 10,9 12,6 83,0 1,1 127 - 0,0 47 1.003,3
06:37 13,7 10,9 12,6 83,0 1,2 128 - 0,0 46 1.003,4
06:36 13,7 10,9 12,6 83,0 1,4 129 - 0,0 48 1.003,4
06:35 13,7 10,9 12,6 83,0 1,7 132 - 0,0 51 1.003,3
06:34 13,6 10,8 12,5 83,0 1,9 134 - 0,0 50 1.003,4
06:33 13,6 10,8 12,5 83,0 1,8 136 - 0,0 48 1.003,3
06:32 13,6 10,8 12,5 83,0 1,3 139 - 0,0 46 1.003,3
06:31 13,6 10,8 12,5 83,0 0,7 141 - 0,0 46 1.003,3
06:30 13,6 10,8 12,5 83,0 0,4 144 - 0,0 44 1.003,3
06:29 13,6 10,8 12,5 83,0 0,4 146 - 0,0 43 1.003,3
06:28 13,6 10,8 12,5 83,0 0,4 147 - 0,0 42 1.003,3
06:27 13,6 10,8 12,5 83,0 0,7 148 - 0,0 41 1.003,3
06:26 13,5 10,7 12,4 83,0 1,0 149 - 0,0 39 1.003,4
06:25 13,5 10,7 12,4 83,0 1,0 151 - 0,0 35 1.003,3
06:24 13,5 10,7 12,4 83,0 0,8 152 - 0,0 34 1.003,3
06:23 13,5 10,7 12,4 83,0 0,7 153 - 0,0 33 1.003,3
06:22 13,5 10,7 12,4 83,0 0,7 153 - 0,0 31 1.003,3
06:21 13,5 10,7 12,4 83,0 0,8 153 - 0,0 30 1.003,3
06:20 13,4 10,6 12,3 83,0 1,0 152 - 0,0 30 1.003,3
06:19 13,4 10,6 12,3 83,0 1,0 152 - 0,0 28 1.003,3
06:18 13,4 10,6 12,3 83,0 0,9 152 - 0,0 27 1.003,3
06:17 13,4 10,6 12,3 83,0 1,1 152 - 0,0 26 1.003,4
06:16 13,4 10,6 12,3 83,4 1,4 151 - 0,0 25 1.003,4
06:15 13,4 10,8 12,4 84,0 1,7 150 - 0,0 25 1.003,4
06:14 13,4 10,8 12,4 84,0 1,8 147 - 0,0 25 1.003,4
06:13 13,4 10,8 12,4 84,0 1,5 145 - 0,0 23 1.003,4
06:12 13,3 10,7 12,3 84,0 1,4 142 - 0,0 22 1.003,4
06:11 13,3 10,7 12,3 84,0 1,3 139 - 0,0 21 1.003,4
06:10 13,3 10,7 12,3 84,0 1,0 136 - 0,0 21 1.003,4
06:09 13,3 10,7 12,3 84,0 0,6 134 - 0,0 19 1.003,4
06:08 13,3 10,7 12,3 84,0 0,5 133 - 0,0 19 1.003,4
06:07 13,3 10,7 12,3 84,0 0,3 133 - 0,0 19 1.003,4
06:06 13,3 10,7 12,3 84,0 0,4 133 - 0,0 18 1.003,4
06:05 13,2 10,6 12,2 84,0 0,7 134 - 0,0 17 1.003,4
06:04 13,2 10,6 12,2 84,0 0,9 133 - 0,0 16 1.003,4
06:03 13,2 10,6 12,2 84,0 0,5 132 - 0,0 16 1.003,4
06:02 13,2 10,6 12,2 84,0 0,3 131 - 0,0 14 1.003,4
06:01 13,2 10,6 12,2 84,0 0,6 128 - 0,0 14 1.003,4
06:00 13,2 10,6 12,2 84,0 0,8 126 - 0,0 13 1.003,4
 
05:59 13,2 10,6 12,2 84,0 1,2 123 - 0,0 12 1.003,5
05:58 13,2 10,6 12,2 84,0 1,6 120 - 0,0 12 1.003,4
05:57 13,2 10,6 12,2 84,0 1,7 118 - 0,0 12 1.003,4
05:56 13,2 10,6 12,2 84,0 1,6 117 - 0,0 11 1.003,4
05:55 13,2 10,6 12,2 84,0 1,4 117 - 0,0 11 1.003,4
05:54 13,2 10,6 12,2 84,0 1,4 117 - 0,0 11 1.003,4
05:53 13,2 10,6 12,2 84,0 1,5 118 - 0,0 11 1.003,4
05:52 13,2 10,6 12,2 84,0 1,7 118 - 0,0 10 1.003,4
05:51 13,2 10,6 12,2 84,0 1,8 119 - 0,0 9 1.003,4
05:50 13,2 10,6 12,2 84,0 1,8 119 - 0,0 9 1.003,4
05:49 13,2 10,6 12,2 84,0 1,7 118 - 0,0 8 1.003,4
05:48 13,2 10,6 12,2 84,0 1,5 117 - 0,0 7 1.003,4
05:47 13,2 10,6 12,2 84,0 1,3 117 - 0,0 7 1.003,4
05:46 13,2 10,6 12,2 84,0 1,3 117 - 0,0 7 1.003,4
05:45 13,2 10,6 12,2 84,0 1,4 119 - 0,0 7 1.003,4
05:44 13,2 10,6 12,2 84,0 1,7 121 - 0,0 7 1.003,4
05:43 13,2 10,6 12,2 84,0 1,7 125 - 0,0 6 1.003,4
05:42 13,2 10,6 12,2 84,0 1,7 130 - 0,0 5 1.003,4
05:41 13,2 10,6 12,2 84,0 1,7 136 - 0,0 5 1.003,4
05:40 13,2 10,6 12,2 84,0 1,6 142 - 0,0 5 1.003,4
05:39 13,2 10,6 12,2 84,0 1,6 147 - 0,0 0 1.003,4
05:38 13,2 10,6 12,2 84,0 1,3 152 - 0,0 0 1.003,4
05:37 13,2 10,6 12,2 84,1 0,9 155 - 0,0 0 1.003,4
05:36 13,2 10,7 12,3 85,0 0,8 158 - 0,0 0 1.003,4
05:35 13,2 10,7 12,3 85,0 1,2 160 - 0,0 0 1.003,4
05:34 13,2 10,7 12,3 85,0 1,5 162 - 0,0 0 1.003,4
05:33 13,2 10,7 12,3 85,0 1,6 163 - 0,0 0 1.003,4
05:32 13,2 10,7 12,3 85,0 1,7 165 - 0,0 0 1.003,4
05:31 13,2 10,7 12,3 85,0 1,6 167 - 0,0 0 1.003,3
05:30 13,2 10,7 12,3 85,0 1,5 169 - 0,0 0 1.003,3
05:29 13,2 10,7 12,3 85,0 1,5 171 - 0,0 0 1.003,3
05:28 13,2 10,7 12,3 85,0 1,4 171 - 0,0 0 1.003,3
05:27 13,1 10,6 12,2 85,0 1,3 170 - 0,0 0 1.003,3
05:26 13,1 10,6 12,2 85,0 1,2 168 - 0,0 0 1.003,3
05:25 13,1 10,6 12,2 85,0 1,0 164 - 0,0 0 1.003,4
05:24 13,1 10,6 12,2 85,0 0,6 160 - 0,0 0 1.003,4
05:23 13,1 10,6 12,2 85,0 0,3 157 - 0,0 0 1.003,4
05:22 13,1 10,6 12,2 85,0 0,4 153 - 0,0 0 1.003,4
05:21 13,1 10,6 12,2 85,0 0,4 150 - 0,0 0 1.003,4
05:20 13,1 10,6 12,2 85,0 0,6 148 - 0,0 0 1.003,4
05:19 13,1 10,6 12,2 85,0 1,0 147 - 0,0 0 1.003,4
05:18 13,1 10,6 12,2 85,0 1,4 146 - 0,0 0 1.003,5
05:17 13,1 10,6 12,2 85,0 1,5 146 - 0,0 0 1.003,5
05:16 13,1 10,6 12,2 85,0 1,5 146 - 0,0 0 1.003,5
05:15 13,1 10,6 12,2 85,0 1,5 146 - 0,0 0 1.003,5
05:14 13,1 10,6 12,2 85,0 1,3 145 - 0,0 0 1.003,5
05:13 13,1 10,6 12,2 85,0 1,3 144 - 0,0 0 1.003,5
05:12 13,0 10,5 12,1 85,0 1,3 144 - 0,0 0 1.003,5
05:11 13,0 10,5 12,1 85,0 1,4 142 - 0,0 0 1.003,5
05:10 13,0 10,5 12,1 85,0 1,6 141 - 0,0 0 1.003,5
05:09 13,0 10,5 12,1 85,0 1,7 139 - 0,0 0 1.003,5
05:08 13,0 10,7 12,2 85,9 1,7 137 - 0,0 0 1.003,5
05:07 13,0 10,7 12,2 86,0 1,7 135 - 0,0 0 1.003,6
05:06 13,0 10,7 12,2 86,0 1,6 134 - 0,0 0 1.003,6
05:05 12,9 10,6 12,1 86,0 1,5 133 - 0,0 0 1.003,5
05:04 12,9 10,6 12,1 86,0 1,5 133 - 0,0 0 1.003,5
05:03 12,9 10,6 12,1 86,0 1,5 132 - 0,0 0 1.003,5
05:02 12,9 10,6 12,1 86,0 1,4 131 - 0,0 0 1.003,5
05:01 12,9 10,6 12,1 86,0 1,4 130 - 0,0 0 1.003,6
05:00 12,9 10,6 12,1 86,0 1,5 129 - 0,0 0 1.003,5
 
04:59 12,9 10,6 12,1 86,0 1,3 128 - 0,0 0 1.003,5
04:57 12,9 10,6 12,1 86,0 1,2 126 - 0,0 0 1.003,6
04:56 12,9 10,6 12,1 86,0 1,1 124 - 0,0 0 1.003,5
04:55 12,9 10,6 12,1 86,0 1,1 123 - 0,0 0 1.003,6
04:54 12,9 10,6 12,1 86,0 1,1 122 - 0,0 0 1.003,6
04:53 12,9 10,6 12,1 86,0 1,1 121 - 0,0 0 1.003,6
04:52 12,9 10,6 12,1 86,0 1,2 121 - 0,0 0 1.003,6
04:51 12,8 10,5 12,0 86,0 1,3 122 - 0,0 0 1.003,7
04:50 12,8 10,5 12,0 86,0 1,3 123 - 0,0 0 1.003,7
04:49 12,8 10,5 12,0 86,0 1,3 123 - 0,0 0 1.003,7
04:48 12,8 10,5 12,0 86,0 1,4 124 - 0,0 0 1.003,7
04:47 12,8 10,5 12,0 86,0 1,5 123 - 0,0 0 1.003,7
04:46 12,8 10,5 12,0 86,0 1,6 123 - 0,0 0 1.003,7
04:45 12,8 10,5 12,0 86,0 1,6 121 - 0,0 0 1.003,7
04:44 12,8 10,5 12,0 86,0 1,6 120 - 0,0 0 1.003,7
04:43 12,8 10,5 12,0 86,0 1,6 119 - 0,0 0 1.003,7
04:42 12,8 10,5 12,0 86,0 1,6 118 - 0,0 0 1.003,7
04:41 12,8 10,5 12,0 86,0 1,6 117 - 0,0 0 1.003,8
04:40 12,8 10,5 12,0 86,0 1,5 117 - 0,0 0 1.003,8
04:39 12,8 10,5 12,0 86,0 1,4 118 - 0,0 0 1.003,7
04:38 12,8 10,5 12,0 86,0 1,4 119 - 0,0 0 1.003,8
04:37 12,8 10,5 12,0 86,0 1,5 120 - 0,0 0 1.003,7
04:36 12,8 10,5 12,0 86,0 1,6 121 - 0,0 0 1.003,7
04:35 12,8 10,5 12,0 86,0 1,6 122 - 0,0 0 1.003,7
04:34 12,8 10,5 12,0 86,0 1,6 123 - 0,0 0 1.003,7
04:33 12,8 10,5 12,0 86,0 1,5 124 - 0,0 0 1.003,7
04:32 12,8 10,5 12,0 86,0 1,3 125 - 0,0 0 1.003,8
04:31 12,8 10,5 12,0 86,0 1,1 125 - 0,0 0 1.003,8
04:30 12,8 10,5 12,0 86,0 1,0 126 - 0,0 0 1.003,8
04:29 12,8 10,5 12,0 86,0 1,1 126 - 0,0 0 1.003,8
04:28 12,8 10,5 12,0 86,0 1,1 127 - 0,0 0 1.003,8
04:27 12,9 10,6 12,1 86,0 1,2 128 - 0,0 0 1.003,8
04:26 12,8 10,5 12,0 86,0 1,2 128 - 0,0 0 1.003,8
04:25 12,9 10,6 12,1 86,0 1,3 127 - 0,0 0 1.003,9
04:24 12,9 10,6 12,1 86,0 1,2 127 - 0,0 0 1.003,9
04:23 12,9 10,6 12,1 86,0 1,0 127 - 0,0 0 1.003,8
04:22 12,9 - - - - - - - - -
04:21 12,9 10,6 12,1 86,0 1,1 125 - 0,0 0 1.003,9
04:20 12,9 10,6 12,1 86,0 1,1 125 - 0,0 0 1.003,9
04:19 12,9 10,6 12,1 86,0 1,2 124 - 0,0 0 1.003,9
04:18 12,9 10,6 12,1 86,0 1,3 123 - 0,0 0 1.003,9
04:17 12,9 - - - - - - - - -
04:16 13,0 10,7 12,2 86,0 1,6 122 - 0,0 0 1.003,9
04:15 13,0 10,7 12,2 86,0 1,7 122 - 0,0 0 1.003,9
04:14 13,0 10,7 12,2 86,0 1,7 121 - 0,0 0 1.003,9
04:13 13,1 10,8 12,3 86,0 1,8 121 - 0,0 0 1.003,9
04:12 13,1 10,7 12,3 85,6 1,7 121 - 0,0 0 1.003,9
04:11 13,1 10,6 12,2 85,0 1,6 120 - 0,0 0 1.003,9
04:10 13,1 - - - - - - - - -
04:09 13,2 10,9 12,4 85,9 1,3 120 - 0,0 0 1.003,9
04:08 13,2 10,7 12,3 85,0 1,2 121 - 0,0 0 1.004,0
04:07 13,2 10,7 12,3 85,0 1,0 121 - 0,0 0 1.004,0
04:06 13,2 10,7 12,3 85,0 1,0 122 - 0,0 0 1.004,0
04:05 13,2 10,7 12,3 85,0 1,0 123 - 0,0 0 1.004,0
04:04 13,3 10,8 12,4 85,0 1,1 124 - 0,0 0 1.004,0
04:03 13,3 10,8 12,4 85,0 1,2 124 - 0,0 0 1.004,0
04:02 13,3 10,8 12,4 85,0 1,4 125 - 0,0 0 1.004,0
04:01 13,3 10,8 12,4 85,0 1,5 126 - 0,0 0 1.004,0
04:00 13,4 10,9 12,5 85,0 1,3 127 - 0,0 0 1.004,1
 
03:59 13,4 10,9 12,5 85,0 1,2 127 - 0,0 0 1.004,1
03:58 13,4 10,9 12,5 85,0 1,2 126 - 0,0 0 1.004,1
03:57 13,4 10,9 12,5 85,0 1,2 126 - 0,0 0 1.004,1
03:56 13,5 - - - - - - - - -
03:55 13,6 10,9 12,6 84,0 1,2 124 - 0,0 0 1.004,1
03:54 13,6 10,9 12,6 84,0 1,3 124 - 0,0 0 1.004,1
03:53 13,6 10,9 12,6 84,0 1,3 124 - 0,0 0 1.004,2
03:52 13,6 10,9 12,6 84,0 1,3 124 - 0,0 0 1.004,2
03:51 13,6 10,9 12,6 84,0 1,3 124 - 0,0 0 1.004,2
03:50 13,7 11,0 12,7 84,0 1,2 125 - 0,0 0 1.004,2
03:49 13,7 11,0 12,7 84,0 1,1 125 - 0,0 0 1.004,2
03:48 13,7 11,0 12,7 84,0 0,9 126 - 0,0 0 1.004,2
03:47 13,7 11,0 12,7 84,0 0,7 127 - 0,0 0 1.004,2
03:46 13,7 11,0 12,7 84,0 0,8 129 - 0,0 0 1.004,2
03:45 13,7 11,0 12,7 84,0 0,9 130 - 0,0 0 1.004,2
03:44 13,8 11,1 12,8 84,0 1,0 131 - 0,0 0 1.004,2
03:43 13,8 11,1 12,8 84,0 1,2 133 - 0,0 0 1.004,2
03:42 13,8 11,1 12,8 84,0 1,2 135 - 0,0 0 1.004,2
03:41 13,8 11,1 12,8 84,0 1,0 138 - 0,0 0 1.004,2
03:40 13,8 11,1 12,8 84,0 1,0 140 - 0,0 0 1.004,3
03:39 13,8 11,1 12,8 84,0 1,0 143 - 0,0 0 1.004,3
03:38 13,8 11,1 12,8 84,0 1,1 145 - 0,0 0 1.004,3
03:37 13,8 11,1 12,8 84,0 1,2 147 - 0,0 0 1.004,3
03:36 13,8 11,1 12,8 84,0 1,3 149 - 0,0 0 1.004,4
03:35 13,8 11,1 12,8 84,0 1,2 151 - 0,0 0 1.004,4
03:34 13,8 11,1 12,8 84,0 1,0 152 - 0,0 0 1.004,4
03:33 13,8 11,1 12,8 84,0 0,7 154 - 0,0 0 1.004,4
03:32 13,8 11,1 12,8 84,0 0,7 154 - 0,0 0 1.004,4
03:31 13,8 11,1 12,8 84,0 0,8 155 - 0,0 0 1.004,5
03:30 13,8 11,1 12,8 84,0 0,9 155 - 0,0 0 1.004,5
03:29 13,9 11,2 12,9 84,0 1,0 155 - 0,0 0 1.004,4
03:28 13,9 - - - - - - - - -
03:27 13,9 11,2 12,9 84,0 1,0 154 - 0,0 0 1.004,5
03:26 13,9 11,2 12,9 84,0 0,9 153 - 0,0 0 1.004,5
03:25 13,9 - - - - - - - - -
03:24 14,0 11,3 13,0 84,0 0,8 151 - 0,0 0 1.004,5
03:23 14,0 11,3 13,0 84,0 0,8 150 - 0,0 0 1.004,5
03:22 14,0 - - - - - - - - -
03:21 14,1 11,3 13,0 83,0 0,7 148 - 0,0 0 1.004,5
03:20 14,1 11,3 13,0 83,0 0,9 147 - 0,0 0 1.004,5
03:19 14,1 11,3 13,1 83,5 1,1 147 - 0,0 0 1.004,5
03:18 14,1 11,4 13,1 84,0 1,1 146 - 0,0 0 1.004,6
03:17 14,1 11,3 13,0 83,2 1,1 146 - 0,0 0 1.004,6
03:16 14,1 11,3 13,0 83,0 1,1 146 - 0,0 0 1.004,6
03:15 14,2 11,4 13,1 83,0 1,1 147 - 0,0 0 1.004,6
03:14 14,2 11,4 13,1 83,0 1,1 148 - 0,0 0 1.004,6
03:13 14,2 11,4 13,1 83,0 0,9 150 - 0,0 0 1.004,6
03:12 14,2 11,4 13,1 83,0 0,7 152 - 0,0 0 1.004,6
03:11 14,2 - - - - - - - - -
03:10 14,3 11,5 13,2 83,0 0,6 156 - 0,0 0 1.004,6
03:09 14,3 11,5 13,2 83,0 0,6 158 - 0,0 0 1.004,6
03:08 14,3 11,5 13,2 83,0 0,7 161 - 0,0 0 1.004,7
03:07 14,3 11,5 13,2 83,0 1,0 163 - 0,0 0 1.004,7
03:06 14,3 11,5 13,2 83,0 1,2 166 - 0,0 0 1.004,7
03:05 14,3 11,5 13,2 83,0 1,3 168 - 0,0 0 1.004,7
03:02 14,4 - - - - - - - - -
03:01 14,4 11,5 13,3 83,0 1,5 173 - 0,0 0 1.004,7
03:00 14,4 11,5 13,3 83,0 1,6 175 - 0,0 0 1.004,7
 
02:59 14,4 11,5 13,3 83,0 1,6 177 - 0,0 0 1.004,8
02:58 14,4 11,5 13,3 83,0 1,7 179 - 0,0 0 1.004,8
02:57 14,4 11,5 13,3 83,0 1,8 181 - 0,0 0 1.004,8
02:56 14,4 11,5 13,3 83,0 1,8 184 - 0,0 0 1.004,8
02:55 14,4 11,5 13,3 83,0 1,6 186 - 0,0 0 1.004,8
02:54 14,4 11,5 13,3 83,0 1,5 188 - 0,0 0 1.004,8
02:53 14,4 11,5 13,3 83,0 1,4 190 - 0,0 0 1.004,8
02:52 14,5 11,6 13,4 83,0 1,4 192 - 0,0 0 1.004,8
02:51 14,4 11,5 13,3 83,0 1,3 194 - 0,0 0 1.004,9
02:50 14,5 11,6 13,4 83,0 1,4 195 - 0,0 0 1.004,9
02:49 14,5 11,6 13,4 83,0 1,5 196 - 0,0 0 1.004,9
02:48 14,5 11,6 13,4 83,0 1,6 197 - 0,0 0 1.004,9
02:47 14,5 11,6 13,4 83,0 1,6 198 - 0,0 0 1.004,9
02:46 14,5 11,6 13,4 83,0 1,6 199 - 0,0 0 1.004,9
02:45 14,5 11,6 13,4 83,0 1,6 200 - 0,0 0 1.004,9
02:44 14,5 11,6 13,4 83,0 1,5 200 - 0,0 0 1.004,8
02:43 14,6 11,7 13,5 83,0 1,4 200 - 0,0 0 1.004,9
02:42 14,6 11,7 13,5 83,0 1,3 200 - 0,0 0 1.004,9
02:41 14,6 11,7 13,5 83,0 1,2 200 - 0,0 0 1.005,0
02:40 14,6 11,7 13,5 83,0 1,2 200 - 0,0 0 1.004,9
02:39 14,6 11,7 13,5 83,0 1,1 201 - 0,0 0 1.004,9
02:38 14,6 11,7 13,5 83,0 1,2 201 - 0,0 0 1.005,0
02:37 14,6 11,7 13,5 83,0 1,4 201 - 0,0 0 1.005,0
02:36 14,6 11,7 13,5 83,0 1,5 202 - 0,0 0 1.005,0
02:35 14,6 11,7 13,5 83,0 1,6 202 - 0,0 0 1.005,0
02:34 14,6 11,7 13,5 83,0 1,7 203 - 0,0 0 1.005,0
02:33 14,6 11,7 13,5 83,0 1,8 204 - 0,0 0 1.005,0
02:32 14,6 11,7 13,5 83,0 1,8 205 - 0,0 0 1.005,0
02:31 14,6 11,7 13,5 83,0 1,8 205 - 0,0 0 1.005,0
02:30 14,6 11,7 13,5 83,0 1,9 205 - 0,0 0 1.005,0
02:29 14,6 11,7 13,5 83,0 1,9 205 - 0,0 0 1.005,0
02:28 14,6 11,7 13,5 83,0 1,8 205 - 0,0 0 1.005,0
02:27 14,6 11,7 13,5 83,0 1,6 205 - 0,0 0 1.005,1
02:26 14,6 11,7 13,5 83,0 1,4 204 - 0,0 0 1.005,1
02:25 14,6 11,7 13,5 83,0 1,3 204 - 0,0 0 1.005,1
02:24 14,6 11,7 13,5 83,0 1,2 203 - 0,0 0 1.005,1
02:23 14,6 11,7 13,5 83,0 1,2 202 - 0,0 0 1.005,1
02:22 14,7 11,8 13,6 83,0 1,1 201 - 0,0 0 1.005,2
02:21 14,7 11,8 13,6 83,0 1,1 199 - 0,0 0 1.005,1
02:20 14,7 11,8 13,6 83,0 1,2 198 - 0,0 0 1.005,1
02:19 14,7 11,8 13,6 83,0 1,2 196 - 0,0 0 1.005,2
02:18 14,7 11,8 13,6 83,0 1,3 195 - 0,0 0 1.005,2
02:17 14,7 11,8 13,6 83,0 1,4 194 - 0,0 0 1.005,2
02:16 14,7 11,8 13,6 83,0 1,4 195 - 0,0 0 1.005,2
02:15 14,7 11,8 13,6 83,0 1,3 195 - 0,0 0 1.005,2
02:14 14,7 11,8 13,6 83,0 1,3 196 - 0,0 0 1.005,2
02:13 14,7 11,8 13,6 83,0 1,5 197 - 0,0 0 1.005,2
02:12 14,7 11,8 13,6 83,0 1,6 197 - 0,0 0 1.005,2
02:11 14,8 11,9 13,7 83,0 1,8 198 - 0,0 0 1.005,2
02:10 14,8 11,9 13,7 83,0 1,9 199 - 0,0 0 1.005,2
02:09 14,8 11,8 13,7 82,5 2,0 198 - 0,0 0 1.005,2
02:08 14,8 11,8 13,6 82,0 2,1 198 - 0,0 0 1.005,2
02:07 14,8 11,8 13,6 82,0 2,1 198 - 0,0 0 1.005,3
02:06 14,8 11,8 13,6 82,1 2,0 198 - 0,0 0 1.005,2
02:05 14,8 11,9 13,7 83,0 2,0 197 - 0,0 0 1.005,2
02:04 14,8 11,9 13,7 83,0 1,8 197 - 0,0 0 1.005,3
02:03 14,9 12,0 13,8 83,0 1,7 197 - 0,0 0 1.005,3
02:02 14,9 - - - - - - - - -
02:01 14,9 12,0 13,8 83,0 1,4 197 - 0,0 0 1.005,3
02:00 14,9 12,0 13,8 83,0 1,4 196 - 0,0 0 1.005,3
 
01:59 14,9 12,0 13,8 83,0 1,5 195 - 0,0 0 1.005,3
01:58 14,9 - - - - - - - - -
01:57 15,0 12,1 13,9 83,0 1,6 193 - 0,0 0 1.005,4
01:56 15,0 12,1 13,9 83,0 1,6 192 - 0,0 0 1.005,4
01:55 15,0 12,0 13,8 82,2 1,5 190 - 0,0 0 1.005,3
01:54 15,0 - - - - - - - - -
01:53 15,0 12,0 13,8 82,0 1,4 187 - 0,0 0 1.005,4
01:52 15,1 12,0 13,9 82,0 1,3 186 - 0,0 0 1.005,3
01:51 15,1 12,0 13,9 82,0 1,3 185 - 0,0 0 1.005,3
01:50 15,1 12,0 13,9 82,0 1,4 185 - 0,0 0 1.005,3
01:49 15,1 12,2 14,0 82,8 1,6 185 - 0,0 0 1.005,4
01:48 15,1 12,2 14,0 83,0 1,6 185 - 0,0 0 1.005,4
01:47 15,1 12,2 14,0 83,0 1,6 185 - 0,0 0 1.005,4
01:46 15,1 12,2 14,0 83,0 1,6 185 - 0,0 0 1.005,4
01:45 15,1 12,2 14,0 83,0 1,7 185 - 0,0 0 1.005,4
01:44 15,1 12,2 14,0 83,0 1,6 185 - 0,0 0 1.005,4
01:43 15,1 12,2 14,0 83,0 1,5 185 - 0,0 0 1.005,4
01:42 15,1 12,2 14,0 83,0 1,4 186 - 0,0 0 1.005,4
01:41 15,1 12,2 14,0 83,0 1,3 188 - 0,0 0 1.005,4
01:40 15,1 12,2 14,0 83,0 1,3 190 - 0,0 0 1.005,4
01:39 15,1 12,2 14,0 83,0 1,2 192 - 0,0 0 1.005,4
01:38 15,1 12,2 14,0 83,0 1,3 194 - 0,0 0 1.005,5
01:37 15,1 12,2 14,0 83,0 1,3 197 - 0,0 0 1.005,4
01:36 15,1 12,2 14,0 83,0 1,4 200 - 0,0 0 1.005,5
01:35 15,1 12,2 14,0 83,0 1,5 202 - 0,0 0 1.005,5
01:34 15,1 12,2 14,0 83,0 1,6 203 - 0,0 0 1.005,5
01:33 15,1 12,2 14,0 83,0 1,7 205 - 0,0 0 1.005,5
01:32 15,1 12,2 14,0 83,0 1,6 206 - 0,0 0 1.005,5
01:31 15,1 12,2 14,0 83,0 1,5 206 - 0,0 0 1.005,5
01:30 15,1 12,2 14,0 83,0 1,4 207 - 0,0 0 1.005,5
01:29 15,1 12,2 14,0 83,0 1,2 207 - 0,0 0 1.005,5
01:28 15,1 12,2 14,0 83,0 1,2 208 - 0,0 0 1.005,5
01:27 15,1 12,2 14,0 83,0 1,3 207 - 0,0 0 1.005,5
01:26 15,1 12,2 14,0 83,0 1,4 207 - 0,0 0 1.005,5
01:25 15,1 12,2 14,0 83,0 1,5 206 - 0,0 0 1.005,5
01:24 15,1 12,2 14,0 83,0 1,4 204 - 0,0 0 1.005,6
01:23 15,1 12,2 14,0 83,0 1,4 202 - 0,0 0 1.005,6
01:22 15,1 12,2 14,0 83,0 1,4 201 - 0,0 0 1.005,6
01:21 15,1 12,2 14,0 83,0 1,4 199 - 0,0 0 1.005,6
01:20 15,1 12,2 14,0 83,0 1,4 198 - 0,0 0 1.005,6
01:19 15,1 12,2 14,0 83,0 1,4 198 - 0,0 0 1.005,6
01:18 15,1 12,2 14,0 83,0 1,3 198 - 0,0 0 1.005,6
01:17 15,1 12,2 14,0 83,0 1,3 198 - 0,0 0 1.005,6
01:16 15,1 12,2 14,0 83,0 1,4 198 - 0,0 0 1.005,6
01:15 15,1 12,2 14,0 83,0 1,6 197 - 0,0 0 1.005,6
01:14 15,1 12,2 14,0 83,0 1,8 197 - 0,0 0 1.005,6
01:13 15,1 12,2 14,0 83,0 2,0 196 - 0,0 0 1.005,6
01:12 15,1 12,2 14,0 83,0 2,2 195 - 0,0 0 1.005,6
01:11 15,1 12,2 14,0 83,0 2,4 194 - 0,0 0 1.005,6
01:10 15,1 12,2 14,0 83,0 2,5 193 - 0,0 0 1.005,6
01:09 15,1 12,2 14,0 83,0 2,4 193 - 0,0 0 1.005,6
01:08 15,1 12,2 14,0 83,0 2,2 192 - 0,0 0 1.005,6
01:07 15,1 12,2 14,0 83,0 2,0 192 - 0,0 0 1.005,6
01:06 15,1 12,2 14,0 83,0 1,9 192 - 0,0 0 1.005,6
01:05 15,1 12,2 14,0 83,0 1,9 192 - 0,0 0 1.005,6
01:04 15,1 12,2 14,0 83,0 2,0 193 - 0,0 0 1.005,6
01:03 15,1 12,2 14,0 83,0 2,1 193 - 0,0 0 1.005,6
01:02 15,1 12,2 14,0 83,0 2,3 193 - 0,0 0 1.005,6
01:01 15,1 12,2 14,0 83,0 2,4 193 - 0,0 0 1.005,6
01:00 15,1 12,2 14,0 83,0 2,4 194 - 0,0 0 1.005,6
 
00:59 15,1 12,2 14,0 83,0 2,3 195 - 0,0 0 1.005,6
00:58 15,1 12,2 14,0 83,0 2,1 197 - 0,0 0 1.005,6
00:57 15,1 12,1 13,9 82,3 2,0 200 - 0,0 0 1.005,6
00:56 15,1 12,0 13,9 82,0 1,8 203 - 0,0 0 1.005,6
00:55 15,1 12,0 13,9 82,0 1,6 206 - 0,0 0 1.005,6
00:54 15,2 12,1 14,0 82,0 1,6 209 - 0,0 0 1.005,6
00:53 15,2 12,1 14,0 82,0 1,6 211 - 0,0 0 1.005,6
00:52 15,2 12,1 14,0 82,0 1,6 214 - 0,0 0 1.005,6
00:51 15,2 12,1 14,0 82,0 1,8 215 - 0,0 0 1.005,6
00:50 15,3 12,2 14,1 82,0 1,9 217 - 0,0 0 1.005,7
00:49 15,3 12,2 14,1 82,0 2,0 218 - 0,0 0 1.005,7
00:48 15,3 12,2 14,1 82,0 2,1 218 - 0,0 0 1.005,6
00:47 15,3 12,2 14,1 82,0 2,1 219 - 0,0 0 1.005,6
00:46 15,3 12,2 14,1 82,0 2,1 219 - 0,0 0 1.005,7
00:45 15,3 12,2 14,1 82,0 2,1 219 - 0,0 0 1.005,6
00:44 15,3 12,2 14,1 82,0 2,2 219 - 0,0 0 1.005,6
00:43 15,4 - - - - - - - - -
00:42 15,3 12,2 14,1 82,0 2,5 218 - 0,0 0 1.005,7
00:41 15,3 12,2 14,1 82,0 2,6 217 - 0,0 0 1.005,7
00:40 15,3 12,2 14,1 82,0 2,8 216 - 0,0 0 1.005,7
00:39 15,3 12,2 14,1 82,0 2,9 216 - 0,0 0 1.005,7
00:38 15,3 12,2 14,1 82,0 3,0 215 - 0,0 0 1.005,7
00:37 15,3 12,2 14,1 82,0 3,2 214 - 0,0 0 1.005,7
00:36 15,3 12,2 14,1 82,0 3,3 213 - 0,0 0 1.005,7
00:35 15,3 12,2 14,1 82,0 3,3 212 - 0,0 0 1.005,7
00:34 15,3 12,2 14,1 82,0 3,3 211 - 0,0 0 1.005,7
00:33 15,3 12,2 14,1 82,0 3,3 211 - 0,0 0 1.005,7
00:32 15,3 - - - - - - - - -
00:31 15,2 12,1 14,0 82,0 3,1 210 - 0,0 0 1.005,7
00:30 15,2 12,1 14,0 82,0 3,0 210 - 0,0 0 1.005,7
00:29 15,2 12,1 14,0 82,0 2,9 210 - 0,0 0 1.005,7
00:28 15,2 - - - - - - - - -
00:27 15,2 12,1 14,0 82,0 2,8 209 - 0,0 0 1.005,7
00:26 15,2 12,3 14,1 83,0 2,7 209 - 0,0 0 1.005,7
00:25 - nan nan - - - - - - -
00:24 15,2 12,3 14,1 83,0 2,6 208 - 0,0 0 1.005,7
00:23 15,2 12,3 14,1 83,0 2,6 208 - 0,0 0 1.005,7
00:22 15,2 12,3 14,1 83,0 2,6 208 - 0,0 0 1.005,8
00:21 15,2 12,3 14,1 83,0 2,6 207 - 0,0 0 1.005,7
00:20 15,2 12,3 14,1 83,0 2,5 207 - 0,0 0 1.005,7
00:19 15,2 12,3 14,1 83,0 2,5 208 - 0,0 0 1.005,7
00:18 15,2 12,3 14,1 83,0 2,4 208 - 0,0 0 1.005,7
00:17 15,2 12,3 14,1 83,0 2,4 208 - 0,0 0 1.005,7
00:16 15,2 12,3 14,1 83,0 2,3 208 - 0,0 0 1.005,7
00:15 15,2 12,3 14,1 83,0 2,4 208 - 0,0 0 1.005,7
00:14 15,2 12,3 14,1 83,0 2,4 208 - 0,0 0 1.005,7
00:13 15,2 12,3 14,1 83,0 2,4 208 - 0,0 0 1.005,7
00:12 15,1 12,2 14,0 83,0 2,3 208 - 0,0 0 1.005,7
00:11 15,1 12,2 14,0 83,0 2,3 208 - 0,0 0 1.005,7
00:10 15,1 12,2 14,0 83,0 2,3 208 - 0,0 0 1.005,7
00:09 - nan nan - - - - - - -
00:08 15,1 12,2 14,0 83,0 2,2 208 - 0,0 0 1.005,7
00:07 15,1 12,2 14,0 83,0 2,2 207 - 0,0 0 1.005,7
00:06 15,1 - - - - - - - - -
00:05 15,1 12,2 14,0 83,0 2,3 206 - 0,0 0 1.005,7
00:04 15,1 12,2 14,0 83,0 2,3 206 - 0,0 0 1.005,7
00:03 15,1 12,2 14,0 83,0 2,3 206 - 0,0 0 1.005,7
00:02 15,1 12,2 14,0 83,0 2,3 205 - 0,0 0 1.005,7
00:01 15,1 12,2 14,0 83,0 2,3 205 - 0,0 0 1.005,7
00:00 15,1 12,2 14,0 83,0 2,2 205 - 0,0 0 1.005,7
 
23:59 15,1 12,2 14,0 83,0 2,2 204 - 4,6 0 1.005,7
23:58 15,0 12,1 13,9 83,0 2,2 204 - 4,6 0 1.005,7
23:57 15,1 12,2 14,0 83,0 2,1 203 - 4,6 0 1.005,7
23:56 15,0 12,1 13,9 83,0 2,1 203 - 4,6 0 1.005,7
23:55 15,1 12,2 14,0 83,0 2,1 203 - 4,6 0 1.005,7
23:54 15,1 12,2 14,0 83,0 2,0 203 - 4,6 0 1.005,7
23:53 15,1 12,2 14,0 83,0 2,0 203 - 4,6 0 1.005,7
23:52 15,1 12,2 14,0 83,0 2,0 203 - 4,6 0 1.005,7
23:51 15,1 12,2 14,0 83,0 1,9 203 - 4,6 0 1.005,7
23:50 15,1 12,2 14,0 83,0 1,9 203 - 4,6 0 1.005,7
23:49 15,1 12,2 14,0 83,0 1,8 203 - 4,6 0 1.005,7
23:48 15,1 12,2 14,0 83,0 1,8 203 - 4,6 0 1.005,7
23:47 15,2 12,3 14,1 83,0 1,9 203 - 4,6 0 1.005,7
23:46 15,2 12,2 14,0 82,2 1,8 204 - 4,6 0 1.005,7
23:45 15,2 12,1 14,0 82,0 1,8 204 - 4,6 0 1.005,7
23:44 15,2 12,1 14,0 82,0 1,9 205 - 4,6 0 1.005,7
23:43 15,2 12,1 14,0 82,0 1,9 205 - 4,6 0 1.005,7
23:42 15,2 12,1 14,0 82,0 1,8 204 - 4,6 0 1.005,7
23:41 15,3 12,2 14,1 82,0 1,8 204 - 4,6 0 1.005,6
23:40 15,3 12,2 14,1 82,0 1,9 203 - 4,6 0 1.005,7
23:39 15,3 12,2 14,1 82,0 1,9 202 - 4,6 0 1.005,7
23:38 15,3 12,2 14,1 82,0 1,9 201 - 4,6 0 1.005,7
23:37 15,3 12,2 14,1 82,0 2,0 199 - 4,6 0 1.005,7
23:36 15,3 12,2 14,1 82,0 2,0 198 - 4,6 0 1.005,7
23:35 15,3 12,2 14,1 82,0 2,1 196 - 4,6 0 1.005,7
23:34 15,3 12,2 14,1 82,0 2,1 195 - 4,6 0 1.005,7
23:33 15,3 12,2 14,1 82,0 2,1 194 - 4,6 0 1.005,6
23:32 15,3 12,2 14,1 82,0 2,1 194 - 4,6 0 1.005,6
23:31 15,3 12,2 14,1 82,0 2,1 194 - 4,6 0 1.005,7
23:30 15,3 12,4 14,2 82,6 2,1 194 - 4,6 0 1.005,7
23:29 15,3 12,4 14,2 83,0 2,1 195 - 4,6 0 1.005,7
23:28 15,3 12,4 14,2 83,0 1,7 196 - 4,6 0 1.005,6
23:27 15,3 12,4 14,2 83,0 1,5 197 - 4,6 0 1.005,7
23:26 15,3 12,4 14,2 83,0 1,4 197 - 4,6 0 1.005,7
23:25 15,3 12,4 14,2 83,0 1,5 198 - 4,6 0 1.005,7
23:24 15,3 12,4 14,2 83,0 1,7 198 - 4,6 0 1.005,6
23:23 15,3 12,4 14,2 83,0 2,4 199 - 4,6 0 1.005,6
23:22 15,3 12,4 14,2 83,0 2,8 200 - 4,6 0 1.005,7
23:21 15,3 12,4 14,2 83,0 2,8 201 - 4,6 0 1.005,6
23:20 15,2 12,3 14,1 83,0 2,7 202 - 4,6 0 1.005,6
23:19 15,2 12,3 14,1 83,0 2,6 203 - 4,6 0 1.005,6
23:18 15,2 12,3 14,1 83,0 2,6 203 - 4,6 0 1.005,6
23:17 15,2 12,3 14,1 83,0 2,5 204 - 4,6 0 1.005,6
23:16 15,2 12,3 14,1 83,0 2,5 204 - 4,6 0 1.005,6
23:15 15,2 12,3 14,1 83,0 2,5 203 - 4,6 0 1.005,6
23:14 15,2 12,3 14,1 83,0 2,6 203 - 4,6 0 1.005,6
23:12 15,3 12,4 14,2 83,0 2,5 203 - 4,6 0 1.005,6
23:11 15,3 12,4 14,2 83,0 2,5 202 - 4,6 0 1.005,6
23:10 15,3 12,4 14,2 83,0 2,3 202 - 4,6 0 1.005,6
23:09 15,3 12,4 14,2 83,0 2,0 203 - 4,6 0 1.005,6
23:08 15,3 12,4 14,2 83,0 1,7 203 - 4,6 0 1.005,6
23:07 15,3 12,4 14,2 83,0 1,5 204 - 4,6 0 1.005,6
23:06 15,3 12,4 14,2 83,0 1,5 204 - 4,6 0 1.005,6
23:05 15,3 12,4 14,2 83,0 1,6 205 - 4,6 0 1.005,7
23:04 15,3 12,4 14,2 83,0 1,8 205 - 4,6 0 1.005,6
23:03 15,3 12,4 14,2 83,0 2,0 206 - 4,6 0 1.005,6
23:02 15,3 12,4 14,2 83,0 2,2 205 - 4,6 0 1.005,6
23:01 15,3 12,4 14,2 83,0 2,2 205 - 4,6 0 1.005,7
23:00 15,3 12,4 14,2 83,0 2,1 205 - 4,6 0 1.005,7
 
22:59 15,3 12,4 14,2 83,0 2,1 204 - 4,6 0 1.005,7
22:58 15,3 12,4 14,2 83,0 2,1 203 - 4,6 0 1.005,6
22:57 15,4 12,5 14,3 83,0 2,1 202 - 4,6 0 1.005,6
22:56 15,4 12,5 14,3 83,0 2,2 201 - 4,6 0 1.005,7
22:55 15,4 12,5 14,3 83,0 2,3 199 - 4,6 0 1.005,7
22:54 15,4 12,5 14,3 83,0 2,3 198 - 4,6 0 1.005,7
22:53 15,4 12,5 14,3 83,0 2,3 196 - 4,6 0 1.005,7
22:52 15,4 12,5 14,3 82,9 2,3 194 - 4,6 0 1.005,6
22:51 15,4 12,3 14,2 82,0 2,1 193 - 4,6 0 1.005,6
22:50 15,4 12,3 14,2 82,0 1,7 192 - 4,6 0 1.005,6
22:49 15,4 12,3 14,2 82,0 1,5 190 - 4,6 0 1.005,7
22:48 15,4 12,5 14,3 82,8 1,5 189 - 4,6 0 1.005,6
22:47 15,4 12,5 14,3 83,0 1,7 188 - 4,6 0 1.005,7
22:46 15,4 12,5 14,3 83,0 1,9 187 - 4,6 0 1.005,6
22:45 15,4 12,5 14,3 83,0 2,2 187 - 4,6 0 1.005,7
22:44 15,4 12,5 14,3 83,0 2,2 186 - 4,6 0 1.005,7
22:43 15,4 12,5 14,3 83,0 2,2 186 - 4,6 0 1.005,7
22:42 15,4 12,5 14,3 83,0 2,2 186 - 4,6 0 1.005,6
22:41 15,4 12,5 14,3 83,0 2,2 186 - 4,6 0 1.005,6
22:40 15,4 - - - - - - - - -
22:39 15,4 12,5 14,3 83,0 2,3 187 - 4,6 0 1.005,6
22:38 15,4 12,5 14,3 83,0 2,4 188 - 4,6 0 1.005,6
22:37 15,4 12,5 14,3 83,0 2,4 189 - 4,6 0 1.005,6
22:36 15,4 12,5 14,3 83,0 2,4 190 - 4,6 0 1.005,6
22:35 15,4 12,5 14,3 83,0 2,4 191 - 4,6 0 1.005,6
22:34 15,3 12,4 14,2 83,0 2,4 192 - 4,6 0 1.005,6
22:33 15,4 12,5 14,3 83,0 2,3 192 - 4,6 0 1.005,5
22:32 15,3 12,4 14,2 83,0 2,1 193 - 4,6 0 1.005,6
22:31 15,3 12,4 14,2 83,0 1,8 193 - 4,6 0 1.005,6
22:30 15,3 12,4 14,2 83,0 1,2 194 - 4,6 0 1.005,5
22:29 15,3 12,4 14,2 83,0 0,8 194 - 4,6 0 1.005,5
22:28 15,3 12,4 14,2 83,0 0,7 195 - 4,6 0 1.005,6
22:27 15,3 12,4 14,2 83,0 0,9 196 - 4,6 0 1.005,6
22:26 15,3 12,4 14,2 83,0 1,4 197 - 4,6 0 1.005,6
22:25 15,3 12,4 14,2 83,0 1,9 198 - 4,6 0 1.005,5
22:24 15,3 12,4 14,2 83,0 2,0 199 - 4,6 0 1.005,5
22:23 15,3 12,4 14,2 83,0 1,9 200 - 4,6 0 1.005,5
22:22 15,3 12,4 14,2 83,0 1,9 200 - 4,6 0 1.005,6
22:21 15,3 12,4 14,2 83,0 1,9 199 - 4,6 0 1.005,5
22:20 15,3 12,4 14,2 83,0 2,0 198 - 4,6 0 1.005,5
22:19 15,3 12,4 14,2 83,0 2,2 198 - 4,6 0 1.005,5
22:18 15,3 12,4 14,2 83,0 2,2 197 - 4,6 0 1.005,5
22:17 15,3 12,4 14,2 83,0 2,2 196 - 4,6 0 1.005,5
22:16 15,2 12,4 14,2 83,5 2,1 195 - 4,6 0 1.005,5
22:15 15,2 12,5 14,2 84,0 1,9 195 - 4,6 0 1.005,5
22:14 15,2 12,5 14,2 84,0 1,8 195 - 4,6 0 1.005,5
22:13 15,2 12,5 14,2 84,0 1,8 194 - 4,6 0 1.005,5
22:12 15,2 12,5 14,2 84,0 1,8 194 - 4,6 0 1.005,5
22:11 15,2 12,5 14,2 84,0 1,9 194 - 4,6 0 1.005,5
22:10 15,2 12,5 14,2 84,0 2,0 194 - 4,6 0 1.005,5
22:09 15,2 12,5 14,2 84,0 2,2 194 - 4,6 0 1.005,5
22:08 15,1 12,4 14,1 84,0 2,3 194 - 4,6 0 1.005,5
22:07 15,2 12,5 14,2 84,0 2,4 193 - 4,6 0 1.005,5
22:06 15,1 12,4 14,1 84,0 2,4 192 - 4,6 0 1.005,5
22:05 15,1 12,4 14,1 84,0 2,3 190 - 4,6 0 1.005,5
22:04 15,1 12,4 14,1 84,0 2,2 189 - 4,6 0 1.005,6
22:03 15,1 12,4 14,1 84,0 2,1 188 - 4,6 0 1.005,5
22:02 15,1 12,4 14,1 84,0 1,9 186 - 4,6 0 1.005,6
22:01 15,1 12,4 14,1 84,0 1,8 185 - 4,6 0 1.005,6
22:00 15,1 12,4 14,1 84,0 1,8 184 - 4,6 0 1.005,6
 
21:59 15,1 12,4 14,1 84,0 1,9 183 - 4,6 0 1.005,6
21:58 15,1 - - - - - - - - -
21:57 15,0 12,3 14,0 84,0 1,8 182 - 4,6 0 1.005,7
21:56 15,0 12,3 14,0 84,0 1,9 181 - 4,6 0 1.005,6
21:55 15,0 - - - - - - - - -
21:54 15,0 12,3 14,0 84,0 1,9 178 - 4,6 0 1.005,6
21:53 14,9 12,2 13,9 84,0 1,8 176 - 4,6 0 1.005,6
21:52 14,9 - - - - - - - - -
21:51 14,9 12,4 14,1 85,0 1,6 172 - 4,6 0 1.005,6
21:50 14,9 12,4 14,1 85,0 1,5 170 - 4,6 0 1.005,6
21:49 14,9 12,4 14,1 85,0 1,4 169 - 4,6 0 1.005,6
21:48 14,9 12,4 14,1 85,0 1,4 168 - 4,6 0 1.005,6
21:47 14,9 12,4 14,1 85,0 1,4 167 - 4,6 0 1.005,6
21:46 14,8 12,3 14,0 85,0 1,3 168 - 4,6 0 1.005,7
21:45 14,8 12,3 14,0 85,0 1,3 168 - 4,6 0 1.005,7
21:44 14,8 12,3 14,0 85,0 1,3 170 - 4,6 0 1.005,7
21:43 14,8 12,3 14,0 85,0 1,3 171 - 4,6 0 1.005,7
21:42 14,8 12,3 14,0 85,0 1,2 172 - 4,6 0 1.005,6
21:41 14,8 12,3 14,0 85,0 1,1 174 - 4,6 0 1.005,6
21:40 14,8 12,2 13,9 84,6 1,1 174 - 4,6 0 1.005,6
21:38 14,8 12,1 13,8 84,0 1,2 175 - 4,6 0 1.005,6
21:37 14,8 12,1 13,8 84,0 1,3 176 - 4,6 0 1.005,6
21:36 14,8 12,1 13,8 84,0 1,4 176 - 4,6 0 1.005,6
21:35 14,8 12,1 13,8 84,0 1,5 177 - 4,6 0 1.005,6
21:34 14,8 - - - - - - - - -
21:33 14,8 12,1 13,8 84,0 1,5 179 - 4,6 0 1.005,6
21:32 14,8 12,1 13,8 84,0 1,4 180 - 4,6 0 1.005,6
21:31 14,8 12,1 13,8 84,0 1,4 180 - 4,6 0 1.005,6
21:30 14,8 12,1 13,8 84,0 1,4 180 - 4,6 0 1.005,6
21:29 14,8 12,2 13,9 84,4 1,5 180 - 4,6 0 1.005,6
21:28 14,8 12,3 14,0 85,0 1,5 179 - 4,6 0 1.005,6
21:27 14,8 12,2 13,9 84,4 1,5 179 - 4,6 0 1.005,6
21:26 14,8 12,1 13,8 84,0 1,5 178 - 4,6 0 1.005,6
21:25 14,7 12,0 13,7 84,0 1,5 176 - 4,6 0 1.005,6
21:24 14,7 12,0 13,7 84,0 1,4 175 - 4,6 0 1.005,6
21:23 14,7 12,0 13,7 84,0 1,3 174 - 4,6 0 1.005,6
21:22 14,7 12,0 13,7 84,0 1,1 173 - 4,6 0 1.005,6
21:21 14,7 12,0 13,7 84,0 1,0 172 - 4,6 0 1.005,6
21:20 14,7 12,0 13,7 84,0 1,0 171 - 4,6 0 1.005,7
21:19 14,7 12,0 13,7 84,0 0,9 171 - 4,6 0 1.005,7
21:18 14,7 - - - - - - - - -
21:17 14,7 12,0 13,7 84,0 0,8 169 - 4,6 0 1.005,7
21:16 14,7 12,0 13,7 84,0 0,9 167 - 4,6 0 1.005,7
21:15 14,7 12,0 13,7 84,0 1,1 166 - 4,6 0 1.005,7
21:14 14,7 12,0 13,7 84,0 1,1 165 - 4,6 0 1.005,7
21:13 14,7 12,0 13,7 84,0 1,3 164 - 4,6 0 1.005,6
21:12 14,7 12,0 13,7 84,0 1,3 163 - 4,6 0 1.005,6
21:11 14,7 12,0 13,7 84,0 1,3 162 - 4,6 0 1.005,6
21:10 14,6 11,9 13,6 84,0 1,3 161 - 4,6 0 1.005,6
21:09 14,7 12,0 13,7 84,0 1,3 161 - 4,6 0 1.005,6
21:08 14,6 11,9 13,6 84,0 1,1 160 - 4,6 0 1.005,6
21:07 14,6 11,9 13,6 84,0 1,1 158 - 4,6 0 1.005,6
21:06 14,7 12,0 13,7 84,0 0,9 156 - 4,6 0 1.005,6
21:05 14,7 12,0 13,7 84,0 0,8 153 - 4,6 0 1.005,6
21:04 14,7 12,0 13,7 84,0 0,7 150 - 4,6 0 1.005,6
21:03 14,7 12,0 13,7 84,0 0,6 147 - 4,6 0 1.005,5
21:02 14,6 11,9 13,6 84,0 0,7 144 - 4,6 0 1.005,5
21:01 14,7 12,0 13,7 84,0 1,0 141 - 4,6 0 1.005,6
21:00 14,6 11,9 13,6 84,0 1,2 139 - 4,6 0 1.005,5
 
20:59 14,6 11,9 13,6 84,0 1,1 138 - 4,6 0 1.005,5
20:58 14,6 11,9 13,6 84,0 1,0 138 - 4,6 0 1.005,5
20:57 14,6 11,9 13,6 84,0 1,0 140 - 4,6 1 1.005,5
20:56 14,7 12,0 13,7 84,0 0,7 142 - 4,6 5 1.005,6
20:55 14,7 12,0 13,7 84,0 0,8 144 - 4,6 5 1.005,6
20:54 14,7 12,0 13,7 84,0 0,7 146 - 4,6 6 1.005,6
20:53 14,7 12,0 13,7 84,0 0,5 147 - 4,6 7 1.005,6
20:52 14,7 12,0 13,7 84,0 0,7 147 - 4,6 5 1.005,6
20:51 14,7 12,0 13,7 84,0 1,2 146 - 4,6 5 1.005,6
20:50 14,6 11,9 13,6 84,0 1,8 145 - 4,6 7 1.005,6
20:49 14,6 11,9 13,6 84,0 2,1 145 - 4,6 6 1.005,7
20:48 14,6 11,9 13,6 84,0 2,1 145 - 4,6 6 1.005,6
20:47 14,6 11,9 13,6 84,0 2,0 145 - 4,6 7 1.005,6
20:46 14,6 11,9 13,6 84,0 1,7 145 - 4,6 7 1.005,6
20:45 14,6 11,9 13,6 84,0 1,7 146 - 4,6 10 1.005,6
20:44 14,6 11,9 13,6 84,0 1,7 147 - 4,6 11 1.005,5
20:43 14,6 11,9 13,6 84,0 1,8 147 - 4,6 10 1.005,5
20:42 14,6 11,9 13,6 84,0 2,0 147 - 4,6 8 1.005,5
20:41 14,5 11,8 13,5 84,0 2,2 148 - 4,6 7 1.005,5
20:40 14,5 11,8 13,5 84,0 2,0 148 - 4,6 9 1.005,5
20:39 14,4 11,7 13,4 84,0 1,8 149 - 4,6 11 1.005,5
20:38 14,4 11,7 13,4 84,0 1,6 149 - 4,6 11 1.005,5
20:37 14,4 11,7 13,4 84,0 1,4 150 - 4,6 13 1.005,5
20:36 14,4 11,7 13,4 84,0 1,2 152 - 4,6 14 1.005,5
20:35 14,3 11,7 13,4 84,5 1,0 154 - 4,6 14 1.005,5
20:34 14,3 - - - - - - - - -
20:33 14,3 11,8 13,4 85,0 0,8 159 - 4,6 11 1.005,5
20:32 14,3 11,8 13,4 85,0 0,8 162 - 4,6 10 1.005,6
20:31 14,3 11,8 13,4 85,0 1,0 164 - 4,6 12 1.005,6
20:30 14,2 11,7 13,3 85,0 1,1 166 - 4,6 12 1.005,6
20:28 14,2 11,7 13,3 85,0 1,2 167 - 4,6 9 1.005,7
20:27 14,2 11,7 13,3 85,0 1,3 168 - 4,6 11 1.005,7
20:25 14,2 11,7 13,3 85,0 1,4 169 - 4,6 10 1.005,6
20:24 14,1 11,6 13,2 85,0 1,6 169 - 4,6 11 1.005,7
20:23 14,1 11,6 13,2 85,0 1,7 168 - 4,6 12 1.005,7
20:22 14,1 11,6 13,2 85,0 1,9 167 - 4,6 9 1.005,7
20:21 14,1 11,6 13,2 85,0 2,1 167 - 4,6 8 1.005,7
20:20 14,1 11,6 13,2 85,0 2,1 166 - 4,6 11 1.005,7
20:19 14,0 11,5 13,1 85,0 2,1 165 - 4,6 11 1.005,7
20:18 14,0 - - - - - - - - -
20:17 13,9 11,4 13,0 85,0 2,2 164 - 4,6 9 1.005,7
20:16 13,9 11,4 13,0 85,0 2,2 163 - 4,6 9 1.005,7
20:15 13,9 11,4 13,0 85,0 2,1 162 - 4,6 9 1.005,7
20:14 13,9 - - - - - - - - -
20:13 13,9 11,4 13,0 85,0 1,9 160 - 4,6 11 1.005,8
20:12 13,9 11,4 13,0 85,0 1,8 159 - 4,6 12 1.005,8
20:11 13,9 11,4 13,0 85,0 1,8 159 - 4,6 10 1.005,7
20:10 13,8 11,3 12,9 85,0 1,8 159 - 4,6 13 1.005,7
20:09 13,8 11,3 12,9 85,0 1,9 159 - 4,6 21 1.005,7
20:08 13,8 11,4 13,0 85,2 1,9 159 - 4,6 26 1.005,7
20:07 13,8 11,5 13,0 86,0 1,8 160 - 4,6 24 1.005,7
20:06 13,8 11,5 13,0 86,0 1,7 160 - 4,6 20 1.005,7
20:05 13,8 11,5 13,0 86,0 1,6 161 - 4,6 16 1.005,7
20:04 13,7 11,4 12,9 86,0 1,6 161 - 4,6 17 1.005,7
20:03 13,7 11,4 12,9 86,0 1,5 161 - 4,6 17 1.005,7
20:02 13,7 11,4 12,9 86,0 1,5 160 - 4,6 16 1.005,7
20:01 13,7 11,4 12,9 86,0 1,5 159 - 4,6 18 1.005,7
20:00 13,7 11,4 12,9 86,0 1,5 157 - 4,6 22 1.005,7
 
19:59 13,7 - - - - - - - - -
19:58 13,6 11,3 12,8 86,0 1,6 152 - 4,6 35 1.005,7
19:57 13,6 11,3 12,8 86,0 1,6 149 - 4,6 35 1.005,7
19:56 13,6 - - - - - - - - -
19:55 13,6 11,3 12,8 86,0 1,4 145 - 4,6 31 1.005,7
19:54 13,6 11,3 12,8 86,0 1,3 144 - 4,4 30 1.005,7
19:53 13,6 11,3 12,8 86,0 1,3 143 - 4,4 26 1.005,7
19:52 13,5 11,2 12,7 86,0 1,5 143 - 4,4 25 1.005,7
19:51 13,5 11,2 12,7 86,0 1,5 142 - 4,4 27 1.005,7
19:50 13,4 11,1 12,6 86,0 1,5 141 - 4,4 30 1.005,7
19:49 13,4 11,1 12,6 86,0 1,6 140 - 4,4 32 1.005,7
19:48 13,4 11,1 12,6 86,0 1,7 139 - 4,4 32 1.005,8
19:47 13,4 11,1 12,6 86,0 1,6 138 - 4,4 33 1.005,8
19:46 13,4 11,1 12,6 86,0 1,1 137 - 4,4 36 1.005,8
19:45 13,3 11,0 12,5 86,0 0,8 138 - 4,4 38 1.005,8
19:44 13,3 - - - - - - - - -
19:43 13,3 11,0 12,5 86,0 1,3 138 - 4,4 36 1.005,8
19:42 13,3 11,0 12,5 86,0 1,6 139 - 4,4 37 1.005,9
19:41 13,3 11,0 12,5 86,0 1,5 141 - 4,4 39 1.005,9
19:40 13,2 - - - - - - - - -
19:39 13,2 10,9 12,5 86,2 1,5 144 - 4,4 37 1.005,8
19:38 13,2 11,1 12,5 87,0 1,4 145 - 4,4 41 1.005,8
19:37 13,1 11,0 12,4 87,0 1,3 146 - 4,4 44 1.005,8
19:36 13,1 11,0 12,4 87,0 1,3 145 - 4,4 44 1.005,8
19:35 13,1 11,0 12,4 87,0 1,2 144 - 4,4 45 1.005,9
19:34 13,1 11,0 12,4 87,0 1,5 143 - 4,4 50 1.005,9
19:33 13,0 10,9 12,3 87,0 1,8 140 - 4,4 51 1.005,9
19:32 13,0 10,9 12,3 87,0 2,0 138 - 4,4 56 1.005,9
19:31 12,9 10,8 12,2 87,0 2,1 134 - 4,4 63 1.005,8
19:30 12,9 10,8 12,2 87,0 1,9 132 - 4,4 70 1.005,8
19:29 12,9 - - - - - - - - -
19:28 12,8 10,7 12,1 87,0 1,6 128 - 4,4 74 1.005,8
19:27 12,8 10,7 12,1 87,0 1,7 127 - 4,4 75 1.005,8
19:26 12,8 10,7 12,1 87,0 1,7 126 - 4,4 78 1.005,8
19:25 12,8 10,7 12,1 87,0 1,7 126 - 4,4 81 1.005,9
19:23 12,7 10,6 12,1 87,3 1,6 125 - 4,4 88 1.005,8
19:22 12,7 10,7 12,1 87,9 1,7 125 - 4,4 86 1.005,9
19:21 12,7 10,8 12,1 88,0 2,0 126 - 4,4 85 1.005,9
19:20 12,6 10,7 12,0 88,0 2,4 126 - 4,4 82 1.005,8
19:19 12,6 10,7 12,0 88,0 2,7 126 - 4,4 77 1.005,8
19:18 12,5 10,6 11,9 88,0 2,7 127 - 4,4 78 1.005,8
19:17 12,4 10,5 11,8 88,0 2,4 128 - 4,4 86 1.005,9
19:16 12,4 - - - - - - - - -
19:15 12,3 10,5 11,8 89,0 1,7 131 - 4,4 83 1.005,9
19:14 12,3 10,5 11,8 89,0 1,5 134 - 4,4 75 1.005,9
19:13 12,3 10,5 11,8 89,0 1,6 136 - 4,4 76 1.005,9
19:12 12,2 10,4 11,7 89,0 1,6 139 - 4,4 76 1.005,9
19:11 12,2 10,4 11,7 89,0 1,6 142 - 4,4 79 1.005,9
19:10 12,1 10,4 11,6 89,1 1,5 144 - 4,4 86 1.005,9
19:09 12,1 10,5 11,7 90,0 1,6 147 - 4,4 94 1.005,9
19:08 12,0 10,4 11,6 90,0 1,9 150 - 4,4 103 1.005,9
19:07 12,0 10,4 11,6 90,0 1,9 152 - 4,4 108 1.005,9
19:06 11,9 10,3 11,5 90,0 1,7 153 - 4,4 111 1.005,9
19:05 11,9 10,3 11,5 90,0 1,8 153 - 4,4 112 1.006,0
19:04 11,8 10,2 11,4 90,0 2,0 153 - 4,4 115 1.006,0
19:03 11,8 10,3 11,4 90,3 2,0 152 - 4,4 117 1.006,0
19:02 11,7 10,3 11,4 91,0 2,0 151 - 4,4 120 1.005,9
19:01 11,7 10,3 11,4 91,0 1,8 150 - 4,4 123 1.005,9
19:00 11,6 10,2 11,3 91,0 1,6 150 - 4,4 120 1.006,0
 
18:59 11,6 10,2 11,3 91,0 1,5 149 - 4,4 113 1.006,0
18:58 11,6 10,2 11,3 91,0 1,4 147 - 4,4 103 1.006,1
18:57 11,5 10,1 11,2 91,0 1,3 145 - 4,4 98 1.006,1
18:56 11,5 10,1 11,2 91,0 1,1 140 - 4,4 93 1.006,1
18:55 11,4 10,0 11,1 91,0 0,9 134 - 4,4 84 1.006,1
18:54 11,4 10,0 11,1 91,0 0,9 126 - 4,4 89 1.006,1
18:53 11,4 10,0 11,1 91,0 0,6 119 - 4,4 89 1.006,0
18:52 11,3 9,9 11,0 91,0 0,7 114 - 4,4 87 1.006,0
18:51 11,3 9,9 11,0 91,3 0,9 111 - 4,4 93 1.006,0
18:50 11,3 10,0 11,1 92,0 1,1 110 - 4,4 99 1.006,0
18:49 11,2 9,9 11,0 92,0 1,5 110 - 4,4 100 1.006,1
18:48 11,2 9,9 11,0 92,0 1,8 111 - 4,4 91 1.006,1
18:47 11,2 9,9 11,0 92,0 2,2 113 - 4,4 101 1.006,1
18:46 11,1 9,8 10,9 92,0 2,5 115 - 4,4 112 1.006,0
18:45 11,1 9,8 10,9 92,0 2,8 117 - 4,4 120 1.006,0
18:44 11,1 9,8 10,9 92,0 2,7 120 - 4,4 136 1.006,1
18:43 11,0 9,7 10,8 92,0 2,3 122 - 4,4 133 1.006,0
18:42 11,0 9,7 10,8 92,0 1,9 125 - 4,4 115 1.006,0
18:41 10,9 9,7 10,7 92,0 2,1 128 - 4,4 112 1.006,0
18:40 10,9 9,7 10,7 92,0 2,5 131 - 4,4 106 1.006,1
18:39 10,9 9,7 10,7 92,0 2,4 135 - 4,4 84 1.006,1
18:38 10,8 9,6 10,6 92,0 2,3 139 - 4,4 71 1.006,1
18:37 10,8 9,6 10,6 92,0 2,2 142 - 4,4 62 1.006,1
18:36 10,8 9,6 10,6 92,0 1,7 145 - 4,4 60 1.006,1
18:35 10,8 9,6 10,6 92,0 1,2 147 - 4,4 69 1.006,1
18:34 10,8 9,6 10,6 92,3 1,3 148 - 4,4 78 1.006,0
18:33 10,7 9,6 10,6 93,0 1,3 148 - 4,4 84 1.006,1
18:32 10,7 9,6 10,6 93,0 1,7 147 - 4,4 82 1.006,1
18:31 10,7 9,6 10,6 93,0 2,1 145 - 4,4 77 1.006,2
18:30 10,7 9,6 10,6 93,0 2,5 143 - 4,4 77 1.006,1
18:29 10,7 9,6 10,6 93,0 2,4 140 - 4,4 77 1.006,1
18:28 10,7 9,6 10,6 93,0 2,2 138 - 4,4 78 1.006,1
18:27 10,6 9,5 10,5 93,0 2,1 136 - 4,4 76 1.006,2
18:26 10,6 9,5 10,5 93,0 2,0 133 - 4,4 66 1.006,2
18:25 10,6 9,5 10,5 93,0 2,0 131 - 4,4 62 1.006,3
18:24 10,6 9,5 10,5 93,0 2,1 128 - 4,4 64 1.006,3
18:23 10,6 9,5 10,5 93,0 2,2 125 - 4,4 65 1.006,3
18:22 10,5 9,4 10,3 93,0 1,8 123 - 4,4 58 1.006,4
18:21 10,5 9,4 10,3 93,0 1,2 121 - 4,4 58 1.006,4
18:20 10,5 9,4 10,3 93,0 1,3 119 - 4,4 56 1.006,3
18:19 10,4 9,3 10,2 93,0 1,5 118 - 4,4 51 1.006,4
18:18 10,4 9,3 10,2 93,0 1,7 118 - 4,4 46 1.006,4
18:17 10,4 9,3 10,2 93,0 2,3 118 - 4,4 45 1.006,4
18:16 10,4 9,3 10,2 93,0 3,1 118 - 4,4 49 1.006,3
18:15 10,4 9,3 10,2 93,0 3,3 119 - 4,4 60 1.006,3
18:14 10,3 9,2 10,1 93,0 2,8 120 - 4,4 65 1.006,3
18:13 10,3 9,2 10,1 93,0 2,5 121 - 4,4 65 1.006,3
18:12 10,3 9,2 10,1 93,0 2,2 122 - 4,4 77 1.006,3
18:11 10,3 9,2 10,1 93,0 1,6 123 - 4,4 86 1.006,3
18:10 10,3 9,2 10,1 93,0 1,3 124 - 4,4 91 1.006,1
18:09 10,3 9,2 10,1 93,0 1,4 125 - 4,4 98 1.006,2
18:08 10,3 9,2 10,1 93,0 1,3 127 - 4,4 114 1.006,4
18:07 10,2 9,2 10,1 93,7 0,8 129 - 4,4 111 1.006,5
18:06 10,2 9,3 10,1 94,0 0,3 132 - 4,4 107 1.006,5
18:05 10,2 9,3 10,1 94,0 0,5 134 - 4,4 98 1.006,4
18:04 10,2 9,3 10,1 94,0 0,9 136 - 4,4 95 1.006,4
18:03 10,2 9,3 10,1 94,0 1,2 136 - 4,4 95 1.006,3
18:02 10,2 9,3 10,1 94,0 1,9 136 - 4,4 92 1.006,4
18:01 10,2 9,3 10,1 94,0 2,3 135 - 4,4 96 1.006,4
18:00 10,1 9,2 10,0 94,0 2,5 134 - 4,4 96 1.006,4
 
17:59 10,1 9,2 10,0 94,0 2,4 133 - 4,4 91 1.006,4
17:58 10,1 9,2 10,0 94,0 1,9 132 - 4,4 83 1.006,4
17:57 10,1 9,2 10,0 94,0 1,7 131 - 4,4 72 1.006,5
17:56 10,1 9,2 10,0 94,0 1,7 131 - 4,4 74 1.006,5
17:55 10,1 9,2 10,0 94,0 1,8 132 - 4,4 75 1.006,6
17:54 10,1 9,0 9,9 93,1 2,2 133 - 4,4 77 1.006,7
17:53 10,0 8,9 9,8 93,0 2,7 136 - 4,4 74 1.006,7
17:52 10,0 8,9 9,8 93,0 2,0 138 - 4,4 70 1.006,7
17:51 10,0 8,9 9,8 93,0 0,9 139 - 4,4 70 1.006,7
17:50 10,0 8,9 9,8 93,0 0,6 140 - 4,4 70 1.006,6
17:49 10,0 8,9 9,8 93,0 0,6 141 9,4 4,4 67 1.006,6
17:48 9,9 8,8 9,7 93,0 0,9 141 - 4,4 57 1.006,7
17:47 9,9 8,8 9,7 93,0 1,8 142 - 4,4 49 1.006,8
17:46 9,9 8,8 9,7 93,0 2,5 143 - 4,4 52 1.006,8
17:45 9,9 8,8 9,7 93,0 2,6 145 - 4,4 53 1.006,8
17:44 9,9 8,8 9,7 93,0 2,4 147 - 4,4 49 1.006,9
17:43 9,9 8,8 9,7 93,0 2,3 149 - 4,4 48 1.007,0
17:42 9,9 8,8 9,7 93,0 1,8 151 - 4,4 44 1.007,0
17:41 9,9 8,8 9,7 93,0 1,1 152 - 4,4 47 1.007,0
17:40 9,8 8,7 9,6 93,0 1,6 152 - 4,4 50 1.007,0
17:39 9,8 8,7 9,6 93,0 2,4 151 - 4,4 46 1.007,0
17:38 9,8 8,7 9,6 93,0 2,6 151 - 4,4 48 1.006,9
17:37 9,8 8,7 9,6 93,0 2,3 150 - 4,4 47 1.006,9
17:36 9,8 8,7 9,6 93,0 2,5 150 - 4,4 48 1.007,0
17:35 9,8 8,7 9,6 93,0 2,9 150 - 4,4 45 1.007,0
17:34 9,8 8,7 9,6 93,0 2,8 150 - 4,4 51 1.007,0
17:33 9,8 8,7 9,6 93,0 2,4 149 - 4,4 51 1.007,0
17:32 9,8 8,7 9,6 93,0 2,3 149 - 4,4 41 1.007,0
17:31 9,8 8,7 9,6 93,0 2,6 148 - 4,4 38 1.007,1
17:30 9,8 8,7 9,6 93,0 2,7 148 - 4,4 37 1.007,1
17:29 9,7 8,6 9,5 93,0 2,6 149 - 4,4 40 1.007,1
17:28 9,7 8,6 9,5 93,0 2,5 149 - 4,4 40 1.007,1
17:27 9,7 8,6 9,5 93,0 2,2 148 - 4,4 42 1.007,1
17:26 9,7 8,6 9,5 93,0 1,9 148 - 4,2 45 1.007,1
17:25 9,7 8,6 9,5 93,0 1,6 147 - 4,2 47 1.007,1
17:24 9,7 8,6 9,5 93,0 1,5 146 - 4,2 45 1.007,1
17:23 9,7 8,6 9,5 93,0 2,0 145 - 4,2 53 1.007,1
17:22 9,7 8,6 9,5 93,0 2,6 145 - 4,2 59 1.007,1
17:21 9,7 8,6 9,5 93,0 2,4 144 - 4,2 58 1.007,2
17:20 9,7 8,6 9,5 93,0 1,9 143 - 4,2 57 1.007,2
17:19 9,6 8,5 9,4 93,0 1,9 142 - 4,2 60 1.007,2
17:18 9,6 8,5 9,4 93,0 2,0 140 - 4,2 74 1.007,1
17:17 9,6 8,5 9,4 93,0 2,2 139 - 4,2 82 1.007,1
17:16 9,6 8,5 9,4 93,0 2,5 137 - 4,2 83 1.007,2
17:15 9,6 8,5 9,4 93,0 2,5 137 - 4,2 78 1.007,3
17:14 9,6 8,5 9,4 93,0 2,4 136 - 4,2 65 1.007,3
17:13 9,6 8,5 9,4 93,0 2,3 136 - 4,2 57 1.007,4
17:12 9,6 8,5 9,4 93,0 2,3 136 - 4,2 44 1.007,5
17:11 9,6 8,5 9,4 93,0 2,6 135 - 4,0 40 1.007,6
17:10 9,6 8,5 9,4 93,0 2,6 133 - 4,0 42 1.007,6
17:09 9,6 8,5 9,4 93,0 2,2 131 - 4,0 33 1.007,7
17:08 9,6 8,5 9,4 93,0 1,9 128 - 4,0 29 1.007,7
17:07 9,6 8,5 9,4 93,0 1,8 126 - 4,0 30 1.007,8
17:06 9,6 8,5 9,4 93,0 1,4 123 - 4,0 29 1.007,7
17:05 9,6 8,5 9,4 92,7 1,4 121 - 4,0 28 1.007,8
17:04 9,5 8,3 9,2 92,0 1,7 119 - 3,8 28 1.007,7
17:03 9,5 8,3 9,2 92,0 1,6 117 - 3,8 28 1.007,6
17:02 9,5 8,3 9,2 92,0 1,8 117 - 3,8 29 1.007,5
17:01 9,5 8,3 9,2 92,0 1,7 116 - 3,8 30 1.007,5
17:00 9,5 8,3 9,2 92,0 1,4 114 - 3,8 32 1.007,3
 
16:59 9,5 8,3 9,2 92,0 1,1 111 - 3,8 35 1.007,3
16:58 9,5 8,3 9,2 92,0 1,0 108 - 3,8 39 1.007,2
16:57 9,5 8,3 9,2 92,0 0,7 105 - 3,8 43 1.007,3
16:56 9,5 8,3 9,2 92,0 0,5 103 - 3,8 48 1.007,1
16:55 9,6 8,4 9,3 92,0 0,7 103 - 3,8 48 1.007,3
16:54 9,6 8,4 9,3 92,0 0,5 105 - 3,8 46 1.007,4
16:53 9,6 8,4 9,3 92,0 0,7 110 - 3,8 47 1.007,4
16:52 9,6 8,4 9,3 92,0 0,6 116 - 3,8 49 1.007,5
16:51 9,6 8,4 9,3 92,0 1,0 123 - 3,6 55 1.007,4
16:50 9,6 8,2 9,2 91,2 1,4 131 - 3,6 66 1.007,4
16:49 9,6 8,2 9,2 91,0 1,9 137 - 3,6 69 1.007,4
16:48 9,6 8,2 9,2 91,0 2,2 141 - 3,6 63 1.007,4
16:47 9,6 8,2 9,2 91,0 1,9 142 - 3,6 56 1.007,5
16:46 9,6 8,2 9,2 91,0 1,8 142 - 3,6 49 1.007,6
16:45 9,6 8,2 9,2 91,0 2,1 142 - 3,6 44 1.007,6
16:44 9,6 8,2 9,2 91,0 2,4 141 - 3,6 43 1.007,7
16:43 9,6 8,2 9,2 91,0 2,3 141 - 3,4 42 1.007,7
16:42 9,7 8,2 9,3 90,4 1,7 140 - 3,4 41 1.007,8
16:41 9,7 8,1 9,2 90,0 1,2 140 - 3,4 42 1.007,8
16:40 9,7 8,1 9,2 90,0 1,4 139 - 3,4 40 1.007,8
16:39 9,7 8,1 9,2 90,0 2,2 137 - 3,2 38 1.007,8
16:38 9,8 8,2 9,3 90,0 2,9 136 - 3,2 43 1.007,9
16:37 9,8 8,2 9,3 90,0 2,7 133 - 3,0 44 1.007,9
16:36 9,8 8,2 9,3 90,0 1,8 130 - 3,0 38 1.007,9
16:35 9,8 8,2 9,3 90,0 0,9 127 - 2,8 38 1.008,0
16:34 9,8 8,2 9,3 90,0 0,6 124 - 2,6 40 1.008,0
16:33 9,8 8,1 9,3 89,3 0,7 122 - 2,6 39 1.008,0
16:32 9,8 8,1 9,2 89,0 0,8 121 - 2,6 37 1.008,1
16:31 9,9 8,2 9,3 89,0 1,5 120 - 2,4 40 1.008,2
16:30 9,9 8,2 9,3 89,0 2,2 119 - 2,4 41 1.008,1
16:29 9,9 8,2 9,3 89,0 2,5 119 - 2,4 44 1.008,2
16:27 9,9 8,2 9,3 89,0 2,7 120 - 2,2 50 1.008,1
16:26 9,9 8,2 9,3 89,0 2,7 121 - 2,2 44 1.008,2
16:25 9,9 8,2 9,3 89,0 2,6 123 - 2,2 51 1.008,3
16:24 10,0 8,3 9,4 89,0 2,6 125 - 2,2 54 1.008,3
16:23 10,0 8,3 9,4 89,0 2,5 127 - 2,2 59 1.008,3
16:22 10,0 8,3 9,4 89,0 2,5 129 - 2,0 60 1.008,3
16:21 9,9 8,2 9,3 89,0 2,6 131 - 2,0 62 1.008,3
16:20 9,9 8,2 9,3 89,0 2,5 133 - 2,0 63 1.008,3
16:19 9,9 8,2 9,3 89,0 2,2 134 - 2,0 67 1.008,2
16:18 9,9 8,2 9,3 89,0 1,8 134 - 2,0 70 1.008,3
16:17 9,9 8,2 9,3 89,0 1,5 133 - 2,0 74 1.008,4
16:16 9,9 8,2 9,3 89,0 1,2 132 - 2,0 79 1.008,4
16:15 9,9 8,2 9,3 89,0 1,4 131 - 2,0 91 1.008,4
16:14 9,9 8,2 9,3 89,0 1,6 130 - 2,0 95 1.008,4
16:13 9,9 8,2 9,3 89,0 1,9 129 - 2,0 98 1.008,4
16:12 9,9 8,2 9,3 89,0 2,5 129 - 2,0 100 1.008,4
16:11 9,9 8,2 9,3 89,0 3,0 128 - 2,0 105 1.008,5
16:10 9,8 8,1 9,2 89,0 3,2 128 - 2,0 103 1.008,5
16:09 9,8 8,1 9,2 89,0 3,2 128 - 2,0 97 1.008,6
16:08 9,8 8,1 9,2 89,0 3,3 128 - 2,0 96 1.008,5
16:07 9,8 8,1 9,2 89,0 3,3 128 - 2,0 89 1.008,5
16:06 9,8 8,1 9,2 89,0 3,2 128 - 2,0 83 1.008,4
16:05 9,8 8,1 9,2 89,0 3,1 129 - 2,0 81 1.008,5
16:04 9,8 8,1 9,2 89,0 2,9 129 - 2,0 78 1.008,5
16:03 9,8 8,1 9,2 89,0 3,0 130 - 2,0 80 1.008,5
16:02 9,8 8,1 9,2 89,0 3,1 132 - 2,0 85 1.008,5
16:01 9,8 8,1 9,2 89,0 3,2 133 - 2,0 91 1.008,3
16:00 9,8 8,1 9,2 89,0 3,5 135 - 2,0 92 1.008,3
 
15:59 - nan nan - - - - - - -
15:58 9,8 8,1 9,2 89,0 3,6 138 12,5 2,0 104 1.008,4
15:57 9,8 8,1 9,2 89,0 3,5 139 - 2,0 104 1.008,4
15:56 9,8 8,1 9,2 89,0 3,5 140 - 2,0 108 1.008,3
15:55 9,8 8,1 9,2 89,0 3,3 140 - 2,0 112 1.008,4
15:54 9,9 8,2 9,3 89,0 3,2 141 - 2,0 121 1.008,4
15:53 9,9 8,2 9,3 89,0 2,9 140 - 2,0 120 1.008,4
15:52 9,9 8,2 9,3 89,0 2,1 139 - 2,0 111 1.008,5
15:51 9,9 8,2 9,3 89,0 1,4 137 - 2,0 109 1.008,5
15:50 9,8 8,1 9,2 89,0 1,0 134 - 2,0 106 1.008,6
15:49 9,8 8,1 9,2 89,0 0,4 128 - 2,0 103 1.008,5
15:48 9,8 8,1 9,2 89,0 0,5 119 - 2,0 109 1.008,6
15:46 9,8 8,1 9,2 89,0 0,8 105 - 1,8 130 1.008,6
15:45 9,8 8,1 9,2 89,0 1,3 89 - 1,8 141 1.008,6
15:44 9,8 8,1 9,3 89,2 1,7 76 - 1,8 146 1.008,7
15:43 9,8 8,2 9,3 90,0 1,8 62 - 1,8 148 1.008,6
15:42 9,8 8,2 9,3 90,0 1,6 57 9,4 1,8 145 1.008,8
15:41 9,8 8,2 9,3 90,0 1,3 54 - 1,8 146 1.008,8
15:40 9,8 8,2 9,3 90,0 1,4 54 - 1,8 145 1.008,9
15:39 9,7 8,1 9,2 90,0 1,7 54 - 1,8 149 1.008,8
15:38 9,7 8,1 9,2 90,0 2,0 56 - 1,8 153 1.008,8
15:37 9,7 8,1 9,2 90,0 2,4 58 - 1,8 154 1.008,8
15:36 9,7 8,1 9,2 90,0 2,7 61 - 1,8 145 1.008,9
15:35 9,7 8,1 9,2 90,0 2,7 65 - 1,8 140 1.008,9
15:34 9,7 8,1 9,2 90,0 2,4 69 - 1,8 141 1.008,9
15:33 9,7 8,1 9,2 90,0 1,9 74 - 1,8 142 1.008,9
15:32 9,7 8,1 9,2 90,0 1,7 80 - 1,8 147 1.009,0
15:31 9,7 8,1 9,2 90,0 1,8 85 - 1,8 153 1.008,9
15:30 9,7 8,1 9,2 90,0 1,6 91 - 1,8 148 1.009,1
15:29 9,7 8,1 9,2 90,0 1,6 96 - 1,8 146 1.009,1
15:28 9,7 8,1 9,2 90,0 1,7 101 - 1,8 148 1.009,1
15:27 9,6 7,9 9,0 89,1 1,4 106 - 1,8 163 1.009,1
15:26 9,6 7,9 9,0 89,0 1,4 108 - 1,8 171 1.009,1
15:25 9,6 7,9 9,0 89,0 1,7 111 - 1,8 170 1.009,1
15:24 9,6 7,9 9,0 89,0 1,7 115 - 1,8 170 1.009,2
15:23 9,6 7,9 9,0 89,0 1,9 119 - 1,8 161 1.009,2
15:22 9,6 7,9 9,0 89,0 2,4 122 - 1,8 151 1.009,2
15:21 9,6 7,9 9,0 89,0 2,7 126 - 1,8 144 1.009,3
15:20 9,6 7,9 9,0 89,0 2,7 130 - 1,8 137 1.009,3
15:19 9,6 7,9 9,0 89,0 2,6 133 - 1,8 131 1.009,3
15:18 9,6 7,9 9,0 89,0 2,6 136 - 1,8 127 1.009,3
15:17 9,5 7,8 8,9 89,0 2,4 139 - 1,8 127 1.009,4
15:16 9,5 7,8 8,9 89,0 1,2 140 - 1,8 127 1.009,3
15:15 9,5 7,8 8,9 89,0 0,3 141 - 1,8 123 1.009,2
15:14 9,6 7,9 9,0 89,0 0,7 140 - 1,8 117 1.009,3
15:13 9,6 7,9 9,0 89,0 1,1 139 - 1,8 107 1.009,4
15:12 - nan nan - - - - - - -
15:11 9,6 7,9 9,0 89,0 1,6 135 9,8 1,8 93 1.009,4
15:10 9,6 7,9 9,0 89,0 1,6 134 - 1,8 86 1.009,5
15:09 9,6 7,9 9,0 89,0 1,6 132 - 1,8 83 1.009,5
15:08 9,6 7,9 9,0 89,0 1,5 131 - 1,8 84 1.009,6
15:07 9,6 7,9 9,0 89,0 1,3 131 - 1,8 89 1.009,6
15:06 9,6 7,9 9,0 89,0 1,5 131 - 1,8 95 1.009,6
15:05 9,7 8,0 9,1 89,0 1,7 131 - 1,8 99 1.009,6
15:04 9,7 8,0 9,1 88,9 1,8 130 - 1,8 100 1.009,6
15:03 9,7 7,8 9,0 88,0 2,2 129 - 1,8 101 1.009,6
15:02 9,7 7,8 9,0 88,0 2,2 127 - 1,8 103 1.009,6
15:01 9,7 7,8 9,0 88,0 2,1 125 - 1,6 99 1.009,7
15:00 9,7 7,8 9,0 88,0 1,9 123 - 1,6 91 1.009,7
 
14:59 9,7 7,8 9,0 88,0 1,6 122 - 1,6 89 1.009,7
14:58 9,7 7,8 9,0 88,0 1,0 123 - 1,6 92 1.009,7
14:57 9,7 7,8 9,0 88,0 0,8 122 - 1,6 91 1.009,7
14:56 9,7 7,8 9,0 88,0 1,0 126 - 1,4 84 1.009,8
14:55 9,7 7,8 9,0 88,0 1,1 130 - 1,4 83 1.009,9
14:54 9,7 7,8 9,0 88,0 1,0 136 - 1,4 81 1.009,9
14:53 9,7 7,8 9,0 88,0 0,8 143 - 1,4 76 1.009,9
14:52 9,7 7,7 9,0 87,1 0,8 151 - 1,4 71 1.010,0
14:51 9,7 7,6 9,0 87,0 1,2 157 - 1,4 72 1.010,0
14:50 9,8 7,7 9,1 87,0 1,9 161 - 1,4 77 1.010,0
14:49 9,8 7,7 9,1 87,0 2,5 163 - 1,4 81 1.010,0
14:48 9,8 7,7 9,1 87,0 2,5 163 - 1,2 82 1.010,0
14:47 9,8 7,7 9,1 87,0 2,3 162 - 1,2 80 1.010,0
14:46 9,8 7,7 9,1 87,0 2,0 160 - 1,2 78 1.010,1
14:45 9,8 7,7 9,1 87,0 1,7 158 - 1,2 82 1.010,1
14:44 9,8 7,7 9,1 87,0 1,6 156 - 1,2 85 1.010,2
14:43 9,8 7,7 9,1 87,0 1,3 154 - 1,2 95 1.010,1
14:42 9,8 7,7 9,1 87,0 1,1 153 - 1,2 108 1.010,2
14:41 9,8 7,7 9,1 87,0 1,4 151 - 1,0 110 1.010,2
14:40 9,8 7,7 9,0 86,9 2,0 149 - 1,0 105 1.010,2
14:39 9,8 7,6 9,0 86,0 2,4 146 - 1,0 99 1.010,2
14:38 9,8 7,6 9,0 86,0 2,4 142 - 1,0 97 1.010,2
14:37 9,8 7,6 9,0 86,0 2,1 137 - 1,0 97 1.010,3
14:36 9,8 7,6 9,0 86,0 1,6 132 - 1,0 97 1.010,3
14:35 9,8 7,6 9,0 86,0 1,5 128 - 1,0 97 1.010,3
14:34 9,9 7,7 9,1 86,0 1,6 124 9,4 1,0 97 1.010,4
14:33 9,9 7,7 9,1 86,0 1,6 121 - 1,0 95 1.010,4
14:32 9,9 7,7 9,1 86,0 1,8 119 - 1,0 88 1.010,6
14:31 9,9 7,6 9,0 85,4 2,2 117 - 1,0 86 1.010,6
14:30 10,0 7,6 9,1 85,0 2,2 116 - 1,0 80 1.010,6
14:29 10,0 7,6 9,1 85,0 2,1 115 - 1,0 75 1.010,7
14:28 10,0 7,6 9,1 85,0 2,2 114 - 1,0 73 1.010,7
14:27 10,1 7,7 9,2 85,0 2,3 115 - 0,8 72 1.010,7
14:26 10,1 7,7 9,2 85,0 2,3 115 - 0,8 74 1.010,7
14:25 10,1 7,6 9,1 84,4 2,2 116 - 0,8 77 1.010,8
14:24 10,1 7,5 9,1 84,0 2,0 118 - 0,8 78 1.010,8
14:23 10,2 7,6 9,2 84,0 2,0 121 - 0,8 82 1.010,8
14:22 10,2 7,6 9,2 84,0 2,1 124 - 0,6 84 1.010,9
14:21 10,2 7,6 9,1 83,7 2,1 126 - 0,6 83 1.010,9
14:20 10,3 7,5 9,2 83,0 2,1 129 - 0,6 84 1.010,9
14:19 10,3 7,5 9,2 83,0 2,0 132 - 0,6 88 1.011,0
14:18 10,3 7,5 9,2 83,0 1,8 134 - 0,6 88 1.011,0
14:17 10,3 7,4 9,1 82,1 1,7 137 - 0,6 89 1.011,0
14:16 10,4 7,5 9,2 82,0 1,6 139 - 0,6 90 1.011,0
14:15 10,4 7,5 9,2 82,0 1,7 141 - 0,6 94 1.011,0
14:14 10,4 7,5 9,2 82,0 2,0 143 - 0,4 101 1.011,0
14:13 10,5 7,4 9,2 81,3 2,1 144 - 0,4 109 1.011,1
14:12 10,5 7,4 9,2 81,0 2,2 146 - 0,4 111 1.011,1
14:11 10,6 7,5 9,3 81,0 2,4 147 - 0,4 112 1.011,1
14:10 10,6 7,4 9,3 80,8 2,5 147 - 0,2 114 1.011,1
14:09 10,7 7,4 9,3 80,0 2,4 147 - 0,2 117 1.011,1
14:08 10,7 7,4 9,3 80,0 2,5 147 - 0,2 123 1.011,1
14:07 10,7 7,3 9,2 79,3 2,5 147 - 0,2 128 1.011,1
14:06 10,8 7,3 9,3 79,0 2,6 146 - 0,2 131 1.011,2
14:05 10,8 7,3 9,3 78,9 2,6 145 - 0,2 133 1.011,2
14:04 10,9 7,2 9,3 78,0 2,4 143 - 0,0 134 1.011,1
14:03 10,9 7,2 9,3 78,0 2,0 141 - 0,0 133 1.011,1
14:02 11,0 7,3 9,4 78,0 1,7 139 - 0,0 132 1.011,2
14:01 11,0 7,3 9,4 78,0 1,4 138 - 0,0 132 1.011,2
14:00 11,1 7,4 9,5 78,0 1,3 137 - 0,0 132 1.011,2
 
13:59 11,1 7,4 9,5 78,0 1,5 136 - 0,0 133 1.011,2
13:58 11,2 7,4 9,5 77,7 1,7 136 - 0,0 135 1.011,2
13:57 11,2 7,3 9,5 77,0 1,8 136 - 0,0 137 1.011,3
13:56 11,2 7,3 9,5 77,0 1,7 137 - 0,0 137 1.011,4
13:55 11,2 7,3 9,5 77,0 1,6 139 - 0,0 140 1.011,3
13:54 11,2 7,3 9,5 77,0 1,6 142 - 0,0 143 1.011,3
13:53 11,2 7,1 9,4 76,0 1,8 145 - 0,0 148 1.011,3
13:52 11,3 7,2 9,5 76,0 1,8 148 - 0,0 153 1.011,4
13:51 11,3 7,2 9,5 76,0 1,5 151 - 0,0 159 1.011,4
13:50 11,3 7,2 9,5 76,0 1,5 154 - 0,0 163 1.011,4
13:49 11,4 7,3 9,6 76,0 1,8 157 - 0,0 172 1.011,4
13:48 11,4 7,1 9,5 75,1 2,1 160 - 0,0 180 1.011,4
13:47 11,4 7,1 9,5 75,0 2,2 163 - 0,0 184 1.011,4
13:46 11,4 7,1 9,5 75,0 2,3 165 - 0,0 199 1.011,4
13:45 11,4 7,1 9,5 75,0 2,4 167 - 0,0 212 1.011,4
13:40 11,5 7,0 9,4 74,0 2,3 169 - 0,0 221 1.011,4
13:39 11,5 7,0 9,4 74,0 2,0 169 - 0,0 217 1.011,5
13:38 11,5 7,0 9,4 74,0 1,6 168 - 0,0 196 1.011,5
13:37 11,6 7,1 9,5 74,0 1,3 166 - 0,0 184 1.011,5
13:36 11,6 7,1 9,5 74,0 0,9 163 - 0,0 183 1.011,6
13:35 11,6 7,1 9,5 74,0 0,7 160 - 0,0 187 1.011,6
13:34 11,5 6,9 9,4 73,6 0,7 156 - 0,0 198 1.011,6
13:33 11,5 6,8 9,3 73,0 0,9 152 - 0,0 209 1.011,6
13:32 11,5 6,8 9,3 73,0 1,3 148 - 0,0 219 1.011,6
13:31 11,5 6,7 9,3 72,2 1,7 145 - 0,0 221 1.011,6
13:30 11,5 6,6 9,2 72,0 2,0 141 - 0,0 221 1.011,6
13:29 11,5 6,6 9,2 72,0 2,4 138 - 0,0 222 1.011,6
13:28 11,5 6,6 9,2 72,0 2,6 134 - 0,0 219 1.011,6
13:27 11,5 6,6 9,2 72,0 2,5 132 - 0,0 214 1.011,6
13:26 11,5 6,6 9,2 72,0 1,8 129 - 0,0 215 1.011,7
13:25 11,5 6,6 9,2 72,0 1,1 128 - 0,0 221 1.011,6
13:24 11,5 6,6 9,2 71,8 0,9 127 - 0,0 224 1.011,7
13:23 11,5 6,4 9,1 71,0 0,9 127 - 0,0 228 1.011,8
13:22 11,4 6,3 9,0 71,0 1,2 127 - 0,0 235 1.011,8
13:21 11,4 6,3 9,0 71,0 1,6 129 - 0,0 244 1.011,8
13:20 11,4 6,3 9,0 71,0 1,9 131 - 0,0 249 1.011,8
13:19 11,4 6,3 9,0 71,0 1,9 134 - 0,0 229 1.011,8
13:18 11,5 6,2 9,0 70,1 1,6 137 - 0,0 202 1.011,8
13:17 11,5 6,2 9,0 70,0 1,2 140 - 0,0 205 1.011,9
13:16 11,5 6,2 9,0 70,0 1,1 143 - 0,0 191 1.011,9
13:15 11,6 6,2 9,1 69,4 1,2 146 - 0,0 171 1.011,9
13:14 11,6 6,1 9,0 69,0 1,5 149 - 0,0 183 1.011,9
13:13 11,6 6,3 9,1 69,9 1,9 151 - 0,0 198 1.011,8
13:12 11,7 6,4 9,2 69,8 2,1 153 - 0,0 201 1.011,9
13:11 11,7 6,2 9,1 69,0 1,7 154 - 0,0 208 1.011,9
13:10 11,7 6,2 9,1 69,0 1,4 156 - 0,0 213 1.011,9
13:09 11,8 6,3 9,2 69,0 1,4 157 - 0,0 213 1.011,9
13:08 11,8 6,1 9,1 68,3 1,5 157 - 0,0 212 1.011,9
13:07 11,8 6,1 9,1 68,0 1,7 157 - 0,0 206 1.011,9
13:06 11,9 6,2 9,2 68,0 2,0 157 - 0,0 205 1.012,0
13:05 11,9 6,1 9,2 67,7 1,8 156 - 0,0 212 1.011,9
13:04 12,0 6,1 9,2 67,0 1,4 156 - 0,0 223 1.011,9
13:03 12,0 6,1 9,2 67,0 1,3 156 - 0,0 233 1.012,0
13:02 12,1 6,0 9,2 66,2 1,5 156 - 0,0 235 1.012,0
13:01 12,1 6,0 9,2 66,2 1,9 156 - 0,0 234 1.012,0
13:00 12,1 6,2 9,3 67,0 2,3 157 - 0,0 237 1.012,0
 
12:59 12,1 6,1 9,2 66,6 2,4 157 - 0,0 247 1.012,1
12:58 12,1 5,9 9,2 66,0 2,2 158 - 0,0 265 1.012,2
12:57 12,1 5,8 9,1 65,4 1,9 159 - 0,0 283 1.012,2
12:56 12,1 5,7 9,0 65,0 1,7 159 - 0,0 293 1.012,2
12:55 12,1 5,7 9,0 64,9 1,8 159 - 0,0 288 1.012,3
12:54 12,1 5,5 8,9 64,0 2,1 159 - 0,0 276 1.012,3
12:53 12,1 5,5 8,9 64,0 2,3 159 - 0,0 258 1.012,2
12:52 12,1 5,5 8,9 64,0 2,3 158 - 0,0 238 1.012,3
12:51 12,1 5,5 8,9 64,0 2,2 158 - 0,0 225 1.012,3
12:50 12,1 5,5 8,9 64,0 2,1 158 - 0,0 227 1.012,3
12:49 12,1 5,5 8,9 64,0 2,0 158 - 0,0 243 1.012,3
12:48 12,1 5,5 8,9 64,0 1,9 158 - 0,0 256 1.012,4
12:47 12,1 5,4 8,9 63,6 2,0 157 - 0,0 263 1.012,4
12:46 12,1 5,3 8,8 63,0 2,0 157 - 0,0 258 1.012,4
12:45 12,1 5,4 8,9 63,7 2,1 155 - 0,0 244 1.012,5
12:44 12,1 5,3 8,8 63,2 2,2 154 - 0,0 226 1.012,5
12:43 12,1 5,3 8,8 63,0 2,3 152 - 0,0 212 1.012,4
12:42 12,1 5,3 8,8 63,0 2,2 149 - 0,0 206 1.012,4
12:41 12,1 5,4 8,9 63,6 2,1 146 - 0,0 206 1.012,4
12:40 12,1 5,5 8,9 64,0 2,0 143 - 0,0 200 1.012,5
12:39 12,1 5,5 8,9 64,0 1,8 139 - 0,0 199 1.012,5
12:38 12,1 5,5 8,9 64,0 1,7 135 - 0,0 196 1.012,6
12:37 12,1 5,4 8,9 63,7 1,5 132 - 0,0 194 1.012,6
12:36 12,1 5,3 8,8 63,0 1,5 130 - 0,0 198 1.012,6
12:35 12,1 5,3 8,8 63,0 1,6 128 - 0,0 211 1.012,6
12:34 12,1 5,3 8,8 63,0 1,6 126 - 0,0 220 1.012,5
12:33 12,2 5,4 8,9 63,0 1,6 125 - 0,0 215 1.012,5
12:31 12,1 5,3 8,8 63,0 1,8 124 - 0,0 205 1.012,5
12:30 12,1 5,3 8,8 63,0 1,9 123 - 0,0 204 1.012,5
12:29 12,1 5,3 8,8 63,0 1,9 121 - 0,0 208 1.012,5
12:28 12,1 5,3 8,8 63,0 1,9 120 - 0,0 221 1.012,5
12:27 12,1 5,3 8,8 63,0 1,9 119 - 0,0 232 1.012,5
12:26 12,1 5,3 8,8 63,0 1,9 119 - 0,0 238 1.012,6
12:25 12,1 5,3 8,8 63,0 1,9 120 - 0,0 234 1.012,6
12:24 12,1 - - - - - - - - -
12:23 12,1 5,5 8,9 64,0 1,8 126 - 0,0 210 1.012,6
12:22 12,1 5,4 8,9 63,4 1,6 129 - 0,0 199 1.012,6
12:21 12,1 5,3 8,8 63,0 1,4 133 - 0,0 194 1.012,6
12:20 12,1 5,3 8,8 63,0 1,1 137 - 0,0 197 1.012,7
12:19 12,1 5,3 8,8 63,0 1,0 141 - 0,0 203 1.012,7
12:18 12,1 5,3 8,8 63,0 1,0 146 - 0,0 211 1.012,7
12:17 12,1 - - - - - - - - -
12:16 12,0 5,2 8,7 63,0 1,2 154 - 0,0 229 1.012,8
12:15 12,0 5,2 8,7 63,0 1,4 157 - 0,0 233 1.012,8
12:14 12,0 5,2 8,7 63,0 1,4 160 - 0,0 235 1.012,9
12:13 12,0 5,2 8,7 63,0 1,3 162 - 0,0 235 1.012,9
12:12 12,0 5,2 8,7 63,0 1,1 164 - 0,0 230 1.012,8
12:11 12,0 5,3 8,8 63,6 1,0 165 - 0,0 224 1.012,8
12:10 11,9 5,3 8,8 64,0 1,0 167 - 0,0 222 1.012,9
12:09 11,9 - - - - - - - - -
12:08 11,9 5,1 8,7 63,1 1,4 168 - 0,0 227 1.012,9
12:07 11,9 - - - - - - - - -
12:06 11,8 5,0 8,6 63,0 1,8 169 - 0,0 240 1.013,0
12:05 11,8 5,1 8,6 63,6 1,9 168 - 0,0 244 1.013,0
12:04 11,8 - - - - - - - - -
12:03 11,8 5,0 8,6 63,0 2,0 165 - 0,0 274 1.013,0
12:02 11,8 5,0 8,6 63,0 1,8 162 - 0,0 294 1.013,0
12:01 11,8 5,0 8,6 63,0 1,6 159 - 0,0 306 1.013,0
12:00 11,7 4,9 8,5 63,0 1,3 157 - 0,0 314 1.012,9
 
11:59 11,7 5,0 8,5 63,6 1,0 154 - 0,0 315 1.013,0
11:58 11,7 5,1 8,6 64,0 0,5 152 - 0,0 310 1.013,0
11:57 11,6 4,8 8,4 63,1 0,4 151 - 0,0 307 1.013,0
11:56 11,6 4,8 8,4 63,0 0,3 150 - 0,0 306 1.013,0
11:55 11,6 4,8 8,4 63,0 0,1 148 - 0,0 295 1.013,0
11:54 11,6 4,8 8,4 63,0 0,4 148 - 0,0 276 1.012,9
11:53 11,6 4,8 8,4 63,0 0,7 147 - 0,0 258 1.012,9
11:52 11,5 4,7 8,3 63,0 1,1 146 - 0,0 247 1.013,0
11:51 11,5 4,7 8,3 63,0 1,3 144 - 0,0 244 1.013,0
11:50 11,5 - - - - - - - - -
11:49 11,5 4,7 8,3 63,0 1,5 143 - 0,0 244 1.013,1
11:48 11,4 4,6 8,2 63,0 1,5 143 - 0,0 240 1.013,1
11:47 11,4 4,6 8,2 63,0 1,4 144 - 0,0 234 1.013,2
11:46 11,4 4,6 8,2 63,0 1,5 146 - 0,0 229 1.013,2
11:45 11,4 4,6 8,2 63,0 2,0 147 - 0,0 227 1.013,1
11:44 11,4 4,6 8,2 63,0 2,1 149 - 0,0 227 1.013,1
11:43 11,4 4,6 8,2 63,0 2,0 152 - 0,0 229 1.013,2
11:42 11,4 4,6 8,2 63,0 2,0 154 - 0,0 235 1.013,2
11:41 11,4 4,6 8,2 63,0 2,0 157 - 0,0 245 1.013,2
11:40 11,4 4,6 8,2 63,0 2,0 159 - 0,0 251 1.013,2
11:39 11,4 4,6 8,2 63,0 2,0 162 - 0,0 250 1.013,2
11:38 11,4 4,6 8,2 63,0 2,0 165 - 0,0 244 1.013,2
11:37 11,4 4,6 8,2 63,0 1,9 167 - 0,0 240 1.013,3
11:36 11,4 4,6 8,2 63,0 2,0 168 - 0,0 239 1.013,3
11:35 11,4 4,6 8,2 63,0 2,1 170 - 0,0 241 1.013,3
11:34 11,4 4,6 8,2 63,0 2,2 171 - 0,0 241 1.013,3
11:33 11,4 4,6 8,2 63,0 2,1 172 - 0,0 241 1.013,3
11:32 11,4 4,6 8,2 63,0 2,1 173 - 0,0 242 1.013,4
11:31 11,4 - - - - - - - - -
11:30 11,4 4,6 8,2 63,0 2,1 174 - 0,0 243 1.013,3
11:29 11,4 4,6 8,2 63,0 2,0 173 - 0,0 244 1.013,3
11:28 11,4 4,6 8,2 63,0 2,0 174 - 0,0 243 1.013,3
11:27 11,4 4,6 8,2 63,0 1,9 174 - 0,0 237 1.013,4
11:26 11,3 4,5 8,1 63,0 1,8 175 - 0,0 232 1.013,4
11:25 11,3 4,5 8,1 63,0 1,5 176 - 0,0 235 1.013,4
11:24 11,3 4,5 8,1 63,0 1,2 176 - 0,0 247 1.013,4
11:23 11,3 4,5 8,1 63,0 1,1 176 - 0,0 259 1.013,4
11:22 11,3 4,7 8,2 63,9 1,2 176 - 0,0 264 1.013,4
11:21 11,3 4,5 8,1 63,1 1,3 176 - 0,0 265 1.013,5
11:20 11,3 4,5 8,1 63,0 1,4 175 - 0,0 265 1.013,5
11:19 11,3 4,5 8,1 63,0 1,4 173 - 0,0 263 1.013,4
11:18 11,3 4,5 8,1 63,0 1,4 171 - 0,0 258 1.013,5
11:17 11,3 - - - - - - - - -
11:16 11,2 4,4 8,0 63,0 1,4 167 - 0,0 249 1.013,5
11:15 11,2 4,4 8,0 63,0 1,4 164 - 0,0 245 1.013,5
11:14 11,2 - - - - - - - - -
11:13 11,2 4,5 8,1 63,5 1,4 161 - 0,0 256 1.013,5
11:12 11,2 4,5 8,1 63,4 1,4 161 - 0,0 271 1.013,5
11:11 11,2 4,4 8,0 63,0 1,6 160 - 0,0 280 1.013,5
11:10 11,2 4,4 8,0 63,1 2,1 160 - 0,0 280 1.013,4
11:09 11,2 - - - - - - - - -
11:08 11,1 4,5 8,0 64,0 2,6 159 - 0,0 275 1.013,4
11:07 11,1 4,5 8,0 64,0 2,6 158 - 0,0 272 1.013,5
11:06 11,1 4,4 8,0 63,4 2,5 157 - 0,0 270 1.013,4
11:05 11,1 4,3 7,9 63,0 2,4 155 - 0,0 273 1.013,4
11:04 11,1 4,3 7,9 63,0 2,2 153 - 0,0 274 1.013,4
11:03 11,0 4,3 7,9 63,2 2,3 152 - 0,0 275 1.013,4
11:02 11,1 4,5 8,0 63,7 2,5 151 - 0,0 273 1.013,4
11:01 11,0 4,2 7,8 63,0 2,6 150 - 0,0 268 1.013,4
11:00 11,0 4,4 7,9 63,7 2,6 150 - 0,0 266 1.013,5
 
10:59 11,0 4,4 7,9 64,0 2,5 151 - 0,0 276 1.013,5
10:58 11,0 4,4 7,9 64,0 2,5 151 - 0,0 277 1.013,5
10:57 11,0 4,4 7,9 63,8 2,3 152 - 0,0 279 1.013,5
10:56 11,0 4,4 7,9 63,6 2,1 153 - 0,0 277 1.013,4
10:55 10,9 4,4 7,8 64,0 2,0 154 - 0,0 273 1.013,4
10:54 10,9 4,4 7,8 64,0 1,8 154 - 0,0 269 1.013,5
10:53 10,9 4,4 7,9 64,1 1,8 154 - 0,0 265 1.013,5
10:52 10,9 - - - - - - - - -
10:51 10,8 4,3 7,8 64,0 2,3 100 - 0,0 265 1.013,6
10:50 10,8 4,3 7,8 64,0 1,8 163 - 0,0 264 1.013,6
10:49 10,8 4,3 7,8 64,0 2,1 171 - 0,0 260 1.013,6
10:48 10,8 4,3 7,8 64,0 2,0 236 - 0,0 250 1.013,6
10:47 10,8 4,3 7,8 64,0 2,8 233 - 0,0 238 1.013,6
10:46 10,8 4,3 7,8 64,0 2,8 150 - 0,0 223 1.013,6
10:45 10,8 4,3 7,8 64,0 2,2 68 - 0,0 217 1.013,6
10:44 10,8 4,3 7,8 64,0 2,4 149 - 0,0 206 1.013,6
10:43 10,8 4,3 7,8 64,0 2,4 103 - 0,0 198 1.013,6
10:42 10,8 4,3 7,8 64,0 2,4 200 - 0,0 191 1.013,6
10:41 10,8 4,3 7,8 64,0 2,5 50 - 0,0 187 1.013,6
10:40 10,8 4,3 7,8 64,0 2,7 40 - 0,0 185 1.013,6
10:39 10,8 4,3 7,8 64,0 3,4 150 - 0,0 186 1.013,6
10:38 10,8 4,3 7,8 64,0 1,6 115 - 0,0 189 1.013,7
10:37 10,8 4,3 7,8 64,0 1,8 86 - 0,0 193 1.013,7